<- Previous Day | Today | Next Day ->

All Data for 26 October 2021

 

Time A - D Temp A - D Dew Point A - D Humidity A - D Pressure A - D Wind A - D Wind Dir Gust A - D Rain Rate A - D Rain Total
00:00 9.6 8.7 94 1017.6 2.2 SW 3.1 0.0 0.0
00:01 9.6 8.7 94 1017.7 1.6 S 3.1 0.0 0.0
00:02 9.6 8.7 94 1017.5 1.6 S 3.1 0.0 0.0
00:03 9.6 8.7 94 1017.6 1.6 S 3.1 0.0 0.0
00:04 9.6 8.7 94 1017.3 1.6 SW 3.1 0.0 0.0
00:05 9.6 8.7 94 1017.7 1.6 S 3.1 0.0 0.0
00:06 9.6 8.7 94 1017.4 2.2 S 3.1 0.0 0.0
00:07 9.6 8.7 94 1017.6 2.2 S 3.1 0.0 0.0
00:08 9.6 8.7 94 1017.6 1.6 SE 3.1 0.0 0.0
00:09 9.6 8.7 94 1017.6 1.6 S 3.1 0.0 0.0
00:10 9.6 8.7 94 1017.5 1.6 S 3.1 0.0 0.0
00:12 9.6 8.7 94 1017.6 2.2 SE 2.2 0.0 0.0
00:13 9.6 8.7 94 1017.5 1.6 SE 2.2 0.0 0.0
00:14 9.6 8.7 94 1017.7 1.6 S 2.2 0.0 0.0
00:15 9.6 8.7 94 1017.5 1.6 E 2.2 0.0 0.0
00:16 9.6 8.7 94 1017.8 0.7 NE 2.2 0.8 0.1
00:17 9.6 8.7 94 1017.7 0.7 SE 2.2 0.8 0.1
00:18 9.6 8.7 94 1017.7 0.7 SE 2.2 0.8 0.1
00:19 9.6 8.7 94 1017.7 1.6 S 2.2 0.8 0.1
00:20 9.6 8.7 94 1017.6 1.6 SE 2.2 0.8 0.1
00:21 9.6 8.7 94 1017.8 0.7 E 2.2 0.0 0.1
00:22 9.6 8.8 95 1017.7 0.7 SE 2.2 0.0 0.1
00:23 9.6 8.8 95 1017.6 0.7 S 1.6 0.0 0.1
00:24 9.6 8.8 95 1017.6 0.7 S 1.6 0.0 0.1
00:25 9.6 8.8 95 1017.7 0.7 S 1.6 0.0 0.1
00:26 9.6 8.8 95 1017.6 0.7 S 1.6 0.0 0.1
00:27 9.6 8.8 95 1017.6 1.6 SE 1.6 0.0 0.1
00:28 9.6 8.8 95 1017.7 1.6 SE 1.6 0.0 0.1
00:29 9.6 8.8 95 1017.7 2.2 S 2.2 0.0 0.1
00:30 9.6 8.8 95 1017.8 1.6 SE 2.2 0.0 0.1
00:31 9.6 8.8 95 1017.4 1.6 S 2.2 0.0 0.1
00:32 9.6 8.8 95 1017.5 1.6 SE 2.2 0.0 0.1
00:33 9.6 8.8 95 1017.7 1.6 SE 2.2 0.0 0.1
00:34 9.6 8.8 95 1017.6 1.6 SE 2.2 0.0 0.1
00:35 9.6 8.8 95 1017.6 2.2 S 2.2 0.0 0.1
00:36 9.6 8.8 95 1017.4 2.2 SE 2.2 0.0 0.1
00:37 9.6 8.8 95 1017.4 2.2 S 2.2 0.0 0.1
00:38 9.6 8.8 95 1017.4 2.2 SE 2.2 0.0 0.1
00:39 9.6 8.8 95 1017.3 2.2 SE 2.2 0.0 0.1
00:40 9.6 8.8 95 1017.3 2.2 S 2.2 0.0 0.1
00:41 9.7 8.9 95 1017.5 2.2 S 2.2 0.0 0.1
00:42 9.6 8.8 95 1017.7 2.2 SE 2.2 0.0 0.1
00:43 9.7 8.9 95 1017.7 1.6 S 2.2 0.0 0.1
00:44 9.7 8.9 95 1017.5 1.6 SSE 2.2 0.0 0.1
00:45 9.7 8.9 95 1017.7 1.6 S 2.2 0.0 0.1
00:46 9.7 8.9 95 1017.7 1.6 S 2.2 0.0 0.1
00:47 9.7 8.9 95 1017.7 2.2 SE 2.2 0.0 0.1
00:48 9.7 8.9 95 1017.7 1.6 S 2.2 0.0 0.1
00:49 9.7 8.9 95 1017.6 0.7 S 2.2 0.0 0.1
00:50 9.7 8.9 95 1017.5 0.7 S 2.2 0.0 0.1
00:51 9.7 8.9 95 1017.6 0.7 S 2.2 0.0 0.1
00:52 9.7 8.9 95 1017.7 1.6 SW 2.2 0.0 0.1
00:54 9.7 8.9 95 1017.5 1.6 SW 2.2 0.0 0.1
00:55 9.7 8.9 95 1017.6 2.2 S 2.2 0.0 0.1
00:56 9.7 8.9 95 1017.5 2.2 S 2.2 0.0 0.1
00:57 9.7 8.9 95 1017.6 2.2 SE 2.2 0.0 0.1
00:58 9.8 9.0 95 1017.6 3.1 S 3.1 0.0 0.1
00:59 9.8 9.0 95 1017.6 2.2 S 3.1 0.0 0.1
01:00 9.8 9.0 95 1017.7 2.2 S 3.1 0.0 0.1
01:01 9.8 9.0 95 1017.8 2.2 S 3.1 0.0 0.1
01:02 9.8 9.0 95 1017.7 2.2 S 3.1 0.0 0.1
01:03 9.8 9.0 95 1017.5 2.2 S 3.1 0.0 0.1
01:04 9.8 9.0 95 1017.7 2.2 S 3.1 0.0 0.1
01:05 9.8 9.0 95 1017.7 2.2 S 3.1 0.0 0.1
01:06 9.9 9.1 95 1017.8 2.2 W 3.1 0.0 0.1
01:07 10.0 9.4 96 1017.7 1.6 W 3.1 0.0 0.1
01:08 9.9 9.3 96 1017.7 1.6 E 3.1 0.0 0.1
01:09 10.0 9.4 96 1017.7 1.6 SW 2.2 0.0 0.1
01:10 10.0 9.4 96 1017.3 1.6 S 2.2 0.0 0.1
01:11 10.0 9.4 96 1017.4 1.6 S 2.2 0.0 0.1
01:12 10.0 9.4 96 1017.6 1.6 S 2.2 0.0 0.1
01:13 10.0 9.4 96 1017.4 1.6 SE 2.2 0.0 0.1
01:14 10.0 9.4 96 1017.4 1.6 SE 2.2 0.0 0.1
01:15 10.1 9.5 96 1017.6 1.6 S 2.2 0.0 0.1
01:16 10.1 9.5 96 1017.7 1.6 S 1.6 0.0 0.1
01:17 10.1 9.5 96 1017.5 1.6 S 1.6 0.0 0.1
01:18 10.1 9.5 96 1017.8 1.6 S 1.6 0.0 0.1
01:19 10.1 9.5 96 1017.8 2.2 S 2.2 0.0 0.1
01:20 10.1 9.5 96 1017.7 2.2 S 2.2 0.0 0.1
01:21 10.2 9.6 96 1017.8 2.2 S 2.2 0.0 0.1
01:22 10.2 9.6 96 1017.6 2.2 S 2.2 0.0 0.1
01:23 10.2 9.6 96 1017.8 2.2 S 2.2 0.0 0.1
01:24 10.3 9.7 96 1017.5 1.6 SW 2.2 0.0 0.1
01:25 10.3 9.7 96 1017.8 1.6 SW 2.2 0.0 0.1
01:26 10.3 9.7 96 1017.5 1.6 SW 2.2 0.0 0.1
01:27 10.3 9.7 96 1017.6 1.6 SW 2.2 0.0 0.1
01:28 10.3 9.7 96 1017.6 1.6 SW 2.2 0.0 0.1
01:29 10.3 9.7 96 1017.7 1.6 SW 2.2 0.0 0.1
01:30 10.3 9.7 96 1017.7 1.6 SW 2.2 0.0 0.1
01:31 10.4 9.9 97 1017.7 3.8 S 3.8 0.0 0.1
01:32 10.5 10.0 97 1017.8 3.1 S 3.8 0.0 0.1
01:33 10.5 10.0 97 1017.4 3.8 S 3.8 0.0 0.1
01:34 10.5 10.0 97 1017.6 4.5 S 4.5 0.0 0.1
01:35 10.6 10.1 97 1017.4 3.8 S 4.5 0.0 0.1
01:36 10.7 10.2 97 1017.6 3.1 S 4.5 0.0 0.1
01:37 10.7 10.2 97 1017.5 3.1 S 4.5 0.0 0.1
01:38 10.7 10.2 97 1017.7 3.1 SW 4.5 0.0 0.1
01:39 10.7 10.2 97 1017.5 2.2 SW 4.5 0.0 0.1
01:40 10.8 10.3 97 1017.5 3.8 SW 4.5 0.0 0.1
01:41 10.8 10.3 97 1017.6 3.8 S 4.5 0.0 0.1
01:42 10.8 10.3 97 1017.6 3.8 S 4.5 0.0 0.1
01:43 10.8 10.3 97 1017.7 3.1 S 4.5 0.0 0.1
01:44 10.8 10.3 97 1017.4 3.1 S 3.8 0.0 0.1
01:45 10.8 10.3 97 1017.7 3.1 S 3.8 0.0 0.1
01:46 10.9 10.4 97 1017.7 3.1 SW 3.8 0.0 0.1
01:47 10.9 10.4 97 1017.5 2.2 SW 3.8 0.0 0.1
01:48 10.9 10.6 98 1017.5 3.1 SSW 3.8 0.0 0.1
01:49 11.0 10.7 98 1017.6 2.2 S 3.8 0.0 0.1
01:50 11.0 10.7 98 1017.7 3.8 NW 3.8 0.0 0.1
01:51 11.0 10.7 98 1017.6 5.4 S 5.4 0.0 0.1
01:52 11.1 10.8 98 1017.5 9.8 SW 9.8 0.0 0.1
01:53 11.2 10.9 98 1017.6 9.8 SW 9.8 0.0 0.1
01:54 11.2 10.9 98 1017.4 8.3 SW 9.8 0.0 0.1
01:55 11.2 10.9 98 1017.7 6.0 SW 9.8 0.0 0.1
01:56 11.3 11.0 98 1017.5 5.4 SW 9.8 0.0 0.1
01:57 11.3 11.0 98 1017.4 7.6 SW 9.8 0.0 0.1
01:58 11.4 11.1 98 1017.5 5.4 SW 9.8 0.0 0.1
01:59 11.4 11.1 98 1017.6 8.3 SW 9.8 0.0 0.1
02:00 11.5 11.4 99 1017.7 6.9 S 9.8 0.0 0.1
02:01 11.5 11.4 99 1017.6 6.9 S 9.8 0.0 0.1
02:02 11.5 11.4 99 1017.7 6.9 S 9.8 0.0 0.1
02:03 11.5 11.4 99 1017.7 6.9 S 9.8 0.0 0.1
02:04 11.5 11.4 99 1017.8 6.9 S 8.3 0.0 0.1
02:05 11.6 11.5 99 1017.6 6.9 SW 8.3 0.0 0.1
02:06 11.6 11.5 99 1017.6 6.0 NE 8.3 0.0 0.1
02:07 11.7 11.6 99 1017.7 8.3 SSW 8.3 0.0 0.1
02:08 11.7 11.6 99 1017.7 9.2 SW 9.2 0.0 0.1
02:09 11.7 11.6 99 1017.4 9.2 NW 9.2 0.0 0.1
02:10 11.7 11.6 99 1017.4 9.2 NW 9.2 0.0 0.1
02:11 11.8 11.7 99 1017.6 8.3 SW 9.2 0.0 0.1
02:12 11.8 11.7 99 1017.5 7.6 SW 9.2 0.0 0.1
02:13 11.8 11.7 99 1017.5 7.6 SW 9.2 0.0 0.1
02:14 11.8 11.7 99 1017.5 9.8 SW 9.8 0.0 0.1
02:15 11.9 11.8 99 1017.5 9.8 S 9.8 0.0 0.1
02:16 11.9 11.8 99 1017.5 6.9 SW 9.8 0.0 0.1
02:17 11.9 11.8 99 1017.4 6.0 S 9.8 0.0 0.1
02:18 11.9 11.8 99 1017.4 8.3 SW 9.8 0.0 0.1
02:19 11.9 11.8 99 1017.7 8.3 NW 9.8 0.0 0.1
02:20 11.9 11.8 99 1017.5 6.0 SW 9.8 0.0 0.1
02:21 11.9 11.8 99 1017.4 8.3 SW 9.8 0.0 0.1
02:22 11.9 11.8 99 1017.5 7.6 S 9.8 0.0 0.1
02:23 12.0 11.9 99 1017.5 6.9 SW 9.8 0.0 0.1
02:24 12.0 11.9 99 1017.5 7.6 SW 9.8 0.0 0.1
02:25 12.0 11.9 99 1017.5 7.6 SW 9.8 0.0 0.1
02:26 12.0 11.9 99 1017.8 5.4 S 8.3 0.0 0.1
02:27 12.0 11.9 99 1017.6 5.4 SW 8.3 0.0 0.1
02:28 12.0 11.9 99 1017.7 5.4 SW 8.3 0.0 0.1
02:29 12.0 11.9 99 1017.5 6.9 S 8.3 0.0 0.1
02:30 12.0 11.9 99 1017.5 6.0 S 8.3 0.0 0.1
02:31 12.0 11.9 99 1017.4 6.0 S 8.3 0.0 0.1
02:32 12.0 11.9 99 1017.3 6.9 S 7.6 0.0 0.1
02:33 12.0 11.9 99 1017.3 8.3 SW 8.3 0.0 0.1
02:34 12.0 11.9 99 1017.5 6.9 SW 8.3 0.0 0.1
02:35 12.0 11.9 99 1017.7 7.6 NW 8.3 0.0 0.1
02:36 12.0 11.9 99 1017.4 8.3 SW 8.3 0.0 0.1
02:37 12.0 11.9 99 1017.5 6.0 S 8.3 0.0 0.1
02:38 12.0 11.9 99 1017.5 6.0 SW 8.3 0.0 0.1
02:39 12.0 11.9 99 1017.4 6.0 SW 8.3 0.0 0.1
02:40 12.0 11.9 99 1017.5 5.4 S 8.3 0.0 0.1
02:41 12.0 11.9 99 1017.2 5.4 S 8.3 0.0 0.1
02:42 12.0 11.9 99 1017.2 6.9 SW 8.3 0.0 0.1
02:43 12.0 11.9 99 1017.3 7.6 SW 8.3 0.0 0.1
02:44 12.1 12.0 99 1017.3 6.9 SW 8.3 0.0 0.1
02:45 12.1 12.0 99 1017.3 7.6 SW 8.3 0.0 0.1
02:46 12.1 12.0 99 1017.3 10.7 SW 10.7 0.0 0.1
02:47 12.1 12.0 99 1017.2 7.6 NW 10.7 0.0 0.1
02:48 12.1 12.0 99 1017.1 9.2 S 10.7 0.0 0.1
02:49 12.2 12.1 99 1017.3 9.2 SW 10.7 0.0 0.1
02:50 12.2 12.1 99 1017.3 9.2 SW 10.7 0.0 0.1
02:51 12.2 12.1 99 1017.2 8.3 S 10.7 0.0 0.1
02:52 12.2 12.1 99 1017.3 7.6 SW 10.7 0.0 0.1
02:53 12.2 12.1 99 1017.3 7.6 SW 10.7 0.0 0.1
02:54 12.2 12.1 99 1017.3 9.2 S 10.7 0.0 0.1
02:55 12.3 12.2 99 1017.4 8.3 SW 10.7 0.0 0.1
02:56 12.3 12.2 99 1017.1 7.6 SW 10.7 0.0 0.1
02:57 12.3 12.2 99 1017.2 8.3 SW 9.2 0.0 0.1
02:58 12.3 12.2 99 1017.0 6.0 SSW 9.2 0.0 0.1
02:59 12.3 12.2 99 1017.3 9.2 S 9.2 0.0 0.1
03:01 12.3 12.2 99 1017.3 6.9 SW 9.2 0.0 0.1
03:02 12.3 12.2 99 1017.3 6.9 SW 9.2 0.0 0.1
03:03 12.3 12.2 99 1017.1 6.9 SW 9.2 0.0 0.1
03:04 12.3 12.2 99 1017.3 6.9 SW 9.2 0.0 0.1
03:05 12.3 12.2 99 1017.2 6.9 SW 9.2 0.0 0.1
03:06 12.3 12.2 99 1017.2 6.9 SW 9.2 0.0 0.1
03:07 12.4 12.3 99 1017.2 11.4 SW 11.4 0.0 0.1
03:08 12.4 12.3 99 1017.2 9.8 S 11.4 0.0 0.1
03:09 12.4 12.3 99 1017.2 8.3 SW 11.4 0.0 0.1
03:10 12.4 12.3 99 1017.1 6.9 SW 11.4 0.0 0.1
03:11 12.5 11.9 96 1017.1 8.3 SW 11.4 0.0 0.1
03:12 12.5 11.9 96 1017.2 9.8 SW 11.4 0.0 0.1
03:13 12.5 11.9 96 1017.2 9.8 SW 11.4 0.0 0.1
03:14 12.5 11.9 96 1017.0 10.7 SW 11.4 0.0 0.1
03:15 12.5 11.9 96 1017.1 10.7 S 11.4 0.0 0.1
03:16 12.5 11.9 96 1017.0 10.7 SW 11.4 0.0 0.1
03:17 12.5 11.9 96 1017.2 13.0 S 13.0 0.0 0.1
03:18 12.5 11.9 96 1017.2 10.7 SW 13.0 0.0 0.1
03:19 12.5 11.9 96 1017.1 10.7 SW 13.0 0.0 0.1
03:20 12.5 11.9 96 1017.1 9.8 S 13.0 0.0 0.1
03:21 12.5 11.9 96 1017.1 9.8 S 13.0 0.0 0.1
03:22 12.6 12.0 96 1017.2 12.1 SW 13.0 0.0 0.1
03:23 12.6 12.0 96 1017.0 12.1 SW 13.0 0.0 0.1
03:24 12.6 12.0 96 1017.0 14.5 SW 14.5 0.0 0.1
03:25 12.6 12.0 96 1017.0 12.1 SW 14.5 0.0 0.1
03:26 12.6 12.0 96 1017.1 13.0 S 14.5 0.0 0.1
03:27 12.6 12.0 96 1017.0 8.3 SW 14.5 0.0 0.1
03:29 12.6 12.0 96 1017.0 9.8 S 14.5 0.0 0.1
03:30 12.6 12.0 96 1017.0 9.2 SW 14.5 0.0 0.1
03:31 12.6 12.0 96 1017.1 10.7 S 14.5 0.0 0.1
03:32 12.6 12.0 96 1017.1 11.4 SW 14.5 0.0 0.1
03:33 12.6 12.0 96 1017.1 12.1 WSW 14.5 0.0 0.1
03:34 12.6 12.0 96 1017.1 13.0 NE 13.0 0.0 0.1
03:35 12.6 12.0 96 1017.2 10.7 SW 13.0 0.0 0.1
03:36 12.7 12.1 96 1017.0 10.7 SW 13.0 0.0 0.1
03:37 12.7 12.1 96 1017.1 8.3 S 13.0 0.0 0.1
03:38 12.7 12.1 96 1017.1 11.4 S 13.0 0.0 0.1
03:39 12.7 12.1 96 1016.8 10.7 SW 13.0 0.0 0.1
03:40 12.7 12.1 96 1016.9 12.1 S 13.0 0.0 0.1
03:41 12.7 12.1 96 1016.8 12.1 SW 13.0 0.0 0.1
03:42 12.7 12.1 96 1016.9 10.7 SW 13.0 0.0 0.1
03:43 12.7 12.1 96 1017.0 11.4 SW 13.0 0.0 0.1
03:44 12.7 12.1 96 1016.8 7.6 SW 13.0 0.0 0.1
03:45 12.7 12.1 96 1017.0 15.2 SW 15.2 0.0 0.1
03:46 12.7 12.1 96 1016.7 10.7 SW 15.2 0.0 0.1
03:47 12.7 12.1 96 1016.9 9.8 S 15.2 0.0 0.1
03:48 12.7 12.1 96 1016.8 10.7 SW 15.2 0.0 0.1
03:49 12.7 12.1 96 1016.9 10.7 S 15.2 0.0 0.1
03:50 12.7 12.1 96 1016.8 8.3 SW 15.2 0.0 0.1
03:51 12.7 12.1 96 1017.0 8.3 SW 15.2 0.0 0.1
03:52 12.7 12.1 96 1016.8 8.3 SW 15.2 0.0 0.1
03:53 12.7 12.1 96 1016.9 8.3 SW 15.2 0.0 0.1
03:54 12.7 12.1 96 1016.9 9.2 SW 15.2 0.0 0.1
03:55 12.8 12.2 96 1016.8 13.0 SW 15.2 0.0 0.1
03:56 12.8 12.2 96 1017.0 10.7 SW 13.0 0.0 0.1
03:57 12.8 12.2 96 1016.9 11.4 SW 13.0 0.0 0.1
03:58 12.8 12.2 96 1017.0 13.0 NW 13.0 0.0 0.1
03:59 12.8 12.2 96 1016.7 13.0 WSW 13.0 0.0 0.1
04:00 12.8 12.2 96 1016.9 13.0 SW 13.0 0.0 0.1
04:01 12.8 12.2 96 1017.1 9.8 WSW 13.0 0.0 0.1
04:02 12.8 12.2 96 1016.7 10.7 SW 13.0 0.0 0.1
04:03 12.8 12.2 96 1016.9 10.7 S 13.0 0.0 0.1
04:04 12.8 12.2 96 1016.8 9.2 S 13.0 0.0 0.1
04:05 12.9 12.3 96 1016.8 11.4 S 13.0 0.0 0.1
04:06 12.9 12.3 96 1017.1 13.0 S 13.0 0.0 0.1
04:07 12.9 12.3 96 1016.8 13.0 S 13.0 0.0 0.1
04:08 12.9 12.3 96 1016.8 6.9 SW 13.0 0.0 0.1
04:09 12.9 12.3 96 1016.8 6.0 SW 13.0 0.0 0.1
04:10 12.9 12.4 97 1016.8 10.7 S 13.0 0.0 0.1
04:11 12.9 12.4 97 1017.0 6.0 SW 13.0 0.0 0.1
04:12 12.9 12.4 97 1016.7 9.8 SW 13.0 0.0 0.1
04:13 12.9 12.4 97 1016.8 11.4 SW 13.0 0.0 0.1
04:14 12.9 12.4 97 1017.0 11.4 SW 13.0 0.0 0.1
04:15 12.9 12.4 97 1016.6 10.7 S 13.0 0.0 0.1
04:16 12.9 12.4 97 1016.9 10.7 SW 13.0 0.0 0.1
04:17 12.9 12.4 97 1016.9 10.7 SW 13.0 0.0 0.1
04:18 12.9 12.4 97 1016.8 11.4 SW 11.4 0.0 0.1
04:19 12.9 12.4 97 1017.0 11.4 SW 11.4 0.0 0.1
04:20 13.0 12.5 97 1016.9 11.4 SW 11.4 0.0 0.1
04:21 13.0 12.5 97 1016.8 11.4 SW 11.4 0.0 0.1
04:22 13.0 12.5 97 1016.8 10.7 S 11.4 0.0 0.1
04:23 13.0 12.5 97 1016.6 11.4 SW 11.4 0.0 0.1
04:24 13.0 12.5 97 1016.8 9.8 NE 11.4 0.0 0.1
04:25 13.0 12.5 97 1016.7 8.3 SW 11.4 0.0 0.1
04:26 13.0 12.5 97 1016.7 8.3 S 11.4 0.0 0.1
04:27 13.0 12.5 97 1016.7 13.6 SW 13.6 0.0 0.1
04:28 13.0 12.5 97 1016.6 10.7 SW 13.6 0.0 0.1
04:29 13.0 12.5 97 1016.8 11.4 SW 13.6 0.0 0.1
04:30 13.0 12.5 97 1016.8 13.0 SW 13.6 0.0 0.1
04:31 13.0 12.5 97 1016.6 13.0 SW 13.6 0.0 0.1
04:32 13.0 12.5 97 1016.6 11.4 SW 13.6 0.0 0.1
04:33 13.0 12.5 97 1016.8 11.4 SW 13.6 0.0 0.1
04:34 13.0 12.5 97 1016.8 13.0 SW 13.6 0.0 0.1
04:35 13.0 12.5 97 1016.6 10.7 NW 13.6 0.0 0.1
04:36 13.0 12.5 97 1017.0 13.0 S 13.6 0.0 0.1
04:37 13.0 12.5 97 1016.8 12.1 SW 13.6 0.0 0.1
04:38 13.0 12.5 97 1016.9 9.2 NW 13.0 0.0 0.1
04:39 13.0 12.5 97 1016.7 10.7 S 13.0 0.0 0.1
04:40 13.0 12.5 97 1016.7 9.2 SW 13.0 0.0 0.1
04:41 13.1 12.6 97 1016.7 6.9 S 13.0 0.0 0.1
04:42 13.1 12.6 97 1016.9 6.9 S 13.0 0.0 0.1
04:43 13.1 12.6 97 1016.9 9.8 SW 13.0 0.0 0.1
04:44 13.1 12.6 97 1016.6 11.4 S 13.0 0.0 0.1
04:45 13.1 12.6 97 1016.8 11.4 WNW 13.0 0.0 0.1
04:46 13.1 12.6 97 1017.0 9.2 SW 13.0 0.0 0.1
04:47 13.1 12.6 97 1016.7 9.2 SW 12.1 0.0 0.1
04:48 13.1 12.6 97 1016.6 11.4 SW 11.4 0.0 0.1
04:49 13.1 12.6 97 1016.6 11.4 SW 11.4 0.0 0.1
04:50 13.1 12.6 97 1016.6 8.3 SW 11.4 0.0 0.1
04:51 13.1 12.6 97 1016.7 9.8 SW 11.4 0.0 0.1
04:52 13.1 12.6 97 1016.7 8.3 SW 11.4 0.0 0.1
04:53 13.2 12.7 97 1016.7 12.1 NW 12.1 0.0 0.1
04:54 13.2 12.7 97 1016.6 13.6 SW 13.6 0.0 0.1
04:55 13.2 12.7 97 1016.9 13.6 SW 13.6 0.0 0.1
04:56 13.2 12.9 98 1016.5 9.8 S 13.6 0.0 0.1
04:57 13.2 12.9 98 1016.5 16.8 SW 16.8 0.0 0.1
04:58 13.3 13.0 98 1016.7 13.6 S 16.8 0.0 0.1
04:59 13.3 13.0 98 1016.6 11.4 SW 16.8 0.0 0.1
05:00 13.3 13.0 98 1016.8 11.4 S 16.8 0.0 0.1
05:01 13.3 13.0 98 1016.5 11.4 S 16.8 0.0 0.1
05:02 13.3 13.0 98 1016.7 11.4 S 16.8 0.0 0.1
05:03 13.3 13.0 98 1016.7 11.4 S 16.8 0.0 0.1
05:04 13.3 13.0 98 1016.7 11.4 S 16.8 0.0 0.1
05:05 13.3 13.0 98 1016.7 11.4 S 16.8 0.0 0.1
05:06 13.3 13.0 98 1016.6 11.4 S 16.8 0.0 0.1
05:07 13.4 13.1 98 1016.9 14.5 SW 16.8 0.0 0.1
05:08 13.4 13.1 98 1016.7 14.5 SW 14.5 0.0 0.1
05:09 13.5 13.2 98 1016.8 13.0 SW 14.5 0.0 0.1
05:10 13.5 13.2 98 1016.6 13.0 S 14.5 0.0 0.1
05:11 13.5 13.2 98 1016.7 13.0 S 14.5 0.0 0.1
05:12 13.5 13.2 98 1016.7 19.0 SW 19.0 0.0 0.1
05:13 13.6 13.3 98 1016.8 12.1 SW 19.0 0.0 0.1
05:14 13.6 13.3 98 1016.7 9.8 NW 19.0 0.0 0.1
05:15 13.6 13.3 98 1016.6 9.2 SW 19.0 0.0 0.1
05:16 13.6 13.3 98 1016.7 9.2 SSW 19.0 0.0 0.1
05:17 13.6 13.3 98 1016.9 13.0 SW 19.0 0.0 0.1
05:18 13.6 13.3 98 1016.9 7.6 NW 19.0 0.0 0.1
05:19 13.6 13.3 98 1016.8 7.6 SW 19.0 0.0 0.1
05:20 13.6 13.3 98 1016.9 10.7 S 19.0 0.0 0.1
05:21 13.6 13.3 98 1017.0 13.6 SSW 19.0 0.0 0.1
05:22 13.7 13.4 98 1016.8 13.6 SW 13.6 0.0 0.1
05:23 13.7 13.4 98 1017.0 14.5 W 14.5 0.0 0.1
05:24 13.7 13.4 98 1016.6 14.5 S 14.5 0.0 0.1
05:25 13.7 13.6 99 1016.7 12.1 SW 14.5 0.0 0.1
05:26 13.7 13.6 99 1016.7 16.8 WSW 16.8 0.0 0.1
05:27 13.8 13.7 99 1016.7 16.8 SW 16.8 0.0 0.1
05:28 13.8 13.7 99 1016.7 13.0 SW 16.8 0.0 0.1
05:29 13.8 13.7 99 1016.8 9.8 SW 16.8 0.0 0.1
05:30 13.8 13.7 99 1017.0 9.8 SW 16.8 0.0 0.1
05:31 13.8 13.7 99 1016.9 16.8 S 16.8 0.0 0.1
05:32 13.8 13.7 99 1016.7 15.2 SW 16.8 0.0 0.1
05:33 13.8 13.7 99 1016.9 13.0 SW 16.8 0.0 0.1
05:34 13.9 13.8 99 1016.8 14.5 SW 16.8 0.0 0.1
05:35 13.9 13.8 99 1016.9 13.0 SW 16.8 0.0 0.1
05:36 13.9 13.8 99 1016.9 15.2 NW 16.8 0.0 0.1
05:37 13.9 13.8 99 1017.0 20.6 SW 20.6 0.0 0.1
05:38 13.9 13.8 99 1017.2 16.8 SSW 20.6 0.0 0.1
05:39 14.0 13.9 99 1017.1 13.6 SW 20.6 0.0 0.1
05:40 14.0 13.9 99 1016.9 16.8 SW 20.6 0.0 0.1
05:41 14.0 13.9 99 1016.8 16.8 SW 20.6 0.0 0.1
05:42 14.0 13.9 99 1016.8 15.2 SW 20.6 0.0 0.1
05:43 14.0 13.9 99 1016.9 15.2 NW 20.6 0.0 0.1
05:44 14.0 13.9 99 1016.9 15.9 S 20.6 0.0 0.1
05:45 14.0 13.9 99 1016.9 15.9 S 20.6 0.0 0.1
05:46 14.1 14.0 99 1016.9 13.0 NW 20.6 0.0 0.1
05:47 14.1 14.0 99 1017.0 13.0 NW 20.6 0.0 0.1
05:48 14.1 14.0 99 1017.0 13.0 NW 16.8 0.0 0.1
05:49 14.1 14.0 99 1017.1 13.0 NW 16.8 0.0 0.1
05:50 14.1 14.0 99 1016.8 13.0 NW 16.8 0.0 0.1
05:51 14.1 14.0 99 1017.0 13.0 NW 15.9 0.0 0.1
05:52 14.1 14.0 99 1017.2 13.0 NW 15.9 0.0 0.1
05:53 14.1 14.0 99 1017.0 19.0 SW 19.0 0.0 0.1
05:54 14.1 14.0 99 1017.3 16.8 SW 19.0 0.0 0.1
05:55 14.1 14.0 99 1017.0 15.9 SW 19.0 0.0 0.1
05:56 14.1 14.0 99 1017.0 13.0 S 19.0 0.0 0.1
05:57 14.1 14.0 99 1017.1 13.6 SW 19.0 0.0 0.1
05:58 14.1 14.0 99 1017.1 17.4 W 19.0 0.0 0.1
05:59 14.1 14.0 99 1017.1 13.6 S 19.0 0.0 0.1
06:00 14.1 14.0 99 1017.1 13.0 WSW 19.0 0.0 0.1
06:01 14.1 14.0 99 1017.0 15.2 SW 19.0 0.0 0.1
06:02 14.2 14.1 99 1017.2 15.9 SW 19.0 0.0 0.1
06:03 14.2 14.1 99 1017.2 12.1 SW 19.0 0.0 0.1
06:04 14.1 14.0 99 1017.0 13.6 SW 17.4 0.0 0.1
06:05 14.2 14.1 99 1017.1 19.0 SW 19.0 0.0 0.1
06:06 14.2 14.1 99 1017.3 15.9 SW 19.0 0.0 0.1
06:07 14.2 14.1 99 1017.3 15.9 NE 19.0 0.0 0.1
06:08 14.2 14.1 99 1017.1 14.5 NW 19.0 0.0 0.1
06:09 14.2 14.1 99 1017.1 15.9 NW 19.0 0.0 0.1
06:10 14.2 14.1 99 1017.1 15.9 NW 19.0 0.0 0.1
06:11 14.2 14.1 99 1017.3 19.0 SW 19.0 0.0 0.1
06:12 14.2 14.1 99 1017.1 13.0 SW 19.0 0.0 0.1
06:13 14.2 14.1 99 1017.1 14.5 S 19.0 0.0 0.1
06:14 14.2 14.1 99 1017.1 14.5 S 19.0 0.0 0.1
06:15 14.2 14.1 99 1017.3 13.6 SW 19.0 0.8 0.1
06:16 14.2 14.1 99 1017.1 13.6 SW 19.0 0.8 0.1
06:17 14.2 14.1 99 1017.1 17.4 SW 19.0 0.8 0.1
06:18 14.2 14.1 99 1017.0 17.4 SW 19.0 0.8 0.1
06:19 14.2 14.1 99 1017.3 14.5 SW 19.0 0.8 0.1
06:20 14.2 14.1 99 1017.2 14.5 S 19.0 0.0 0.1
06:21 14.2 14.1 99 1017.2 15.9 WSW 19.0 0.0 0.1
06:22 14.2 14.1 99 1017.2 11.4 SW 17.4 0.0 0.1
06:23 14.2 14.1 99 1017.2 9.2 S 17.4 0.0 0.1
06:24 14.2 14.1 99 1017.3 9.2 S 17.4 0.0 0.1
06:25 14.2 14.1 99 1017.2 13.6 SW 17.4 0.0 0.1
06:26 14.2 14.1 99 1017.4 15.2 SW 17.4 0.0 0.1
06:27 14.2 14.1 99 1017.3 13.0 SW 17.4 0.0 0.1
06:28 14.2 14.1 99 1017.1 17.4 SW 17.4 0.0 0.1
06:29 14.2 14.1 99 1016.9 15.9 SW 17.4 0.0 0.1
06:30 14.2 14.1 99 1017.2 15.9 SW 17.4 0.0 0.1
06:31 14.2 14.1 99 1017.1 11.4 WSW 17.4 0.0 0.1
06:32 14.2 14.1 99 1017.1 15.2 S 17.4 0.0 0.1
06:33 14.2 14.1 99 1017.4 13.0 SW 17.4 0.0 0.1
06:34 14.2 14.1 99 1017.0 13.0 NW 17.4 0.0 0.1
06:35 14.2 14.1 99 1017.2 15.9 SW 17.4 0.0 0.1
06:36 14.2 14.1 99 1017.3 17.4 S 17.4 0.0 0.1
06:37 14.2 14.1 99 1017.2 15.9 SW 17.4 0.0 0.1
06:38 14.2 14.1 99 1017.2 15.9 SW 17.4 0.0 0.1
06:39 14.2 14.1 99 1017.4 12.1 S 17.4 0.0 0.1
06:40 14.2 14.1 99 1017.3 12.1 SW 17.4 0.0 0.1
06:41 14.2 14.1 99 1017.5 13.0 SW 17.4 0.0 0.1
06:42 14.2 14.1 99 1017.1 13.6 SW 17.4 0.0 0.1
06:43 14.2 14.1 99 1017.4 15.9 W 17.4 0.0 0.1
06:44 14.2 14.1 99 1017.1 13.0 WSW 17.4 0.0 0.1
06:45 14.2 14.1 99 1017.1 13.6 NW 17.4 0.0 0.1
06:46 14.2 14.1 99 1017.3 14.5 SW 15.9 0.0 0.1
06:47 14.2 14.1 99 1017.1 20.6 SW 20.6 0.0 0.1
06:48 14.2 14.1 99 1017.5 20.6 SW 20.6 0.0 0.1
06:49 14.2 14.1 99 1017.3 13.0 S 20.6 0.0 0.1
06:50 14.2 14.1 99 1017.3 15.2 W 20.6 0.0 0.1
06:51 14.3 14.2 99 1017.4 19.0 SW 20.6 0.0 0.1
06:52 14.3 14.2 99 1017.3 14.5 WSW 20.6 0.0 0.1
06:53 14.3 14.2 99 1017.4 13.6 SW 20.6 0.0 0.1
06:54 14.3 14.2 99 1017.4 13.0 SW 20.6 0.0 0.1
06:55 14.3 14.2 99 1017.4 15.2 SW 20.6 0.0 0.1
06:56 14.3 14.2 99 1017.3 15.9 SSW 20.6 0.0 0.1
06:57 14.3 14.2 99 1017.2 15.9 SSW 20.6 0.0 0.1
06:58 14.3 14.2 99 1017.3 16.8 WSW 20.6 0.0 0.1
06:59 14.3 14.2 99 1017.2 14.5 NW 19.7 0.0 0.1
07:00 14.3 14.2 99 1017.4 18.3 SW 19.7 0.0 0.1
07:01 14.3 14.2 99 1017.2 18.3 SW 19.7 0.0 0.1
07:02 14.3 14.2 99 1017.5 18.3 SW 19.7 0.0 0.1
07:03 14.3 14.2 99 1017.5 18.3 SW 19.7 0.0 0.1
07:04 14.3 14.2 99 1017.4 18.3 SW 19.7 0.0 0.1
07:05 14.3 14.2 99 1017.2 18.3 SW 18.3 0.0 0.1
07:06 14.3 14.2 99 1017.2 18.3 SW 18.3 0.0 0.1
07:07 14.3 14.2 99 1017.3 15.9 S 18.3 0.0 0.1
07:08 14.3 14.2 99 1017.5 15.9 SW 18.3 0.0 0.1
07:09 14.3 14.2 99 1017.5 16.8 SW 18.3 0.0 0.1
07:10 14.3 14.2 99 1017.1 16.8 SW 18.3 0.0 0.1
07:11 14.3 14.2 99 1017.3 15.2 SW 18.3 0.0 0.1
07:12 14.3 14.2 99 1017.3 15.2 WSW 18.3 0.0 0.1
07:13 14.3 14.2 99 1017.3 15.2 SW 18.3 0.0 0.1
07:14 14.3 14.2 99 1017.5 13.0 SW 18.3 0.0 0.1
07:15 14.3 14.2 99 1017.5 13.6 SW 18.3 0.0 0.1
07:16 14.3 14.2 99 1017.3 13.6 SW 18.3 0.0 0.1
07:17 14.3 14.2 99 1017.4 13.6 SSW 16.8 0.0 0.1
07:18 14.3 14.2 99 1017.2 14.5 NW 16.8 0.0 0.1
07:19 14.3 14.2 99 1017.4 15.2 SW 16.8 0.0 0.1
07:20 14.3 14.2 99 1017.3 15.2 SW 16.8 0.0 0.1
07:21 14.3 14.2 99 1017.4 14.5 W 16.8 0.0 0.1
07:22 14.3 14.2 99 1017.3 13.6 SW 16.8 0.0 0.1
07:23 14.3 14.2 99 1017.3 17.4 SW 17.4 0.0 0.1
07:24 14.4 14.3 99 1017.3 14.5 SSW 17.4 0.0 0.1
07:25 14.3 14.2 99 1017.2 16.8 SW 17.4 0.0 0.1
07:26 14.3 14.2 99 1017.3 15.9 NW 17.4 0.0 0.1
07:27 14.3 14.2 99 1017.3 19.7 SW 19.7 0.0 0.1
07:28 14.3 14.2 99 1017.2 19.7 SW 19.7 0.0 0.1
07:29 14.3 14.2 99 1017.4 15.2 SW 19.7 0.0 0.1
07:30 14.3 14.2 99 1017.4 15.2 SW 19.7 0.0 0.1
07:31 14.4 14.3 99 1017.3 13.6 SW 19.7 0.0 0.1
07:32 14.4 14.3 99 1017.5 13.6 SW 19.7 0.0 0.1
07:33 14.4 14.3 99 1017.6 14.5 WSW 19.7 0.0 0.1
07:34 14.4 14.3 99 1017.6 14.5 WSW 19.7 0.0 0.1
07:35 14.4 14.3 99 1017.5 16.8 SW 19.7 0.0 0.1
07:36 14.4 14.3 99 1017.3 16.8 WSW 19.7 0.0 0.1
07:37 14.4 14.3 99 1017.4 13.6 SW 19.7 0.0 0.1
07:38 14.4 14.3 99 1017.4 14.5 S 19.7 0.0 0.1
07:39 14.3 14.2 99 1017.3 15.9 SW 16.8 0.0 0.1
07:40 14.4 14.3 99 1017.4 15.2 SW 16.8 0.0 0.1
07:41 14.4 14.3 99 1017.4 15.2 SW 16.8 0.0 0.1
07:42 14.4 14.3 99 1017.4 14.5 NW 16.8 0.0 0.1
07:43 14.4 14.3 99 1017.3 13.0 SW 16.8 0.0 0.1
07:44 14.4 14.3 99 1017.4 13.0 S 16.8 0.0 0.1
07:45 14.4 14.3 99 1017.2 13.6 SW 16.8 0.0 0.1
07:46 14.4 14.3 99 1017.5 13.6 SW 15.9 0.0 0.1
07:47 14.4 14.3 99 1017.4 13.0 W 15.9 0.0 0.1
07:48 14.4 14.3 99 1017.6 15.2 SW 15.9 0.0 0.1
07:49 14.4 14.3 99 1017.5 12.1 WSW 15.9 0.0 0.1
07:50 14.4 14.3 99 1017.3 11.4 SW 15.2 0.0 0.1
07:51 14.4 14.3 99 1017.5 15.2 WNW 15.2 0.0 0.1
07:52 14.4 14.3 99 1017.6 11.4 SW 15.2 0.0 0.1
07:53 14.4 14.3 99 1017.5 14.5 SW 15.2 0.0 0.1
07:54 14.3 14.2 99 1017.5 14.5 WSW 15.2 0.0 0.1
07:55 14.3 14.2 99 1017.5 13.0 SW 15.2 0.0 0.1
07:56 14.3 14.2 99 1017.4 15.2 SW 15.2 0.0 0.1
07:57 14.3 14.2 99 1017.5 13.0 S 15.2 0.0 0.1
07:58 14.3 14.2 99 1017.3 13.0 SSW 15.2 0.0 0.1
07:59 14.3 14.2 99 1017.4 13.0 SW 15.2 0.0 0.1
08:00 14.3 14.2 99 1017.2 9.8 SW 15.2 0.0 0.1
08:01 14.3 14.2 99 1017.5 9.8 SW 15.2 0.0 0.1
08:02 14.3 14.2 99 1017.5 9.8 SW 15.2 0.0 0.1
08:03 14.3 14.2 99 1017.3 14.5 SW 15.2 0.0 0.1
08:04 14.3 14.2 99 1017.5 14.5 W 15.2 0.0 0.1
08:05 14.3 14.2 99 1017.6 11.4 SW 15.2 0.0 0.1
08:06 14.3 14.2 99 1017.5 17.4 W 17.4 0.0 0.1
08:07 14.3 14.2 99 1017.4 13.6 W 17.4 0.0 0.1
08:08 14.3 14.2 99 1017.4 15.2 SW 17.4 0.0 0.1
08:09 14.3 14.2 99 1017.3 14.5 NW 17.4 0.0 0.1
08:10 14.3 14.2 99 1017.3 14.5 NW 17.4 0.0 0.1
08:11 14.3 14.2 99 1017.5 14.5 NW 17.4 0.0 0.1
08:12 14.3 14.2 99 1017.6 9.2 SW 17.4 0.0 0.1
08:13 14.3 14.2 99 1017.5 10.7 SW 17.4 0.0 0.1
08:14 14.3 14.2 99 1017.4 11.4 NW 17.4 0.0 0.1
08:15 14.3 14.2 99 1017.6 14.5 SW 17.4 0.0 0.1
08:16 14.3 14.2 99 1017.3 15.2 SW 15.2 0.0 0.1
08:17 14.3 14.2 99 1017.2 13.0 NW 15.2 0.0 0.1
08:18 14.3 14.2 99 1017.5 11.4 SSW 15.2 0.0 0.1
08:19 14.3 14.2 99 1017.5 13.6 S 15.2 0.0 0.1
08:20 14.3 14.2 99 1017.4 13.6 SW 15.2 0.0 0.1
08:21 14.3 14.2 99 1017.4 11.4 SW 15.2 0.0 0.1
08:22 14.3 14.2 99 1017.6 10.7 SW 15.2 0.0 0.1
08:23 14.3 14.2 99 1017.4 11.4 NW 15.2 0.0 0.1
08:24 14.3 14.2 99 1017.6 13.6 S 15.2 0.0 0.1
08:25 14.3 14.2 99 1017.7 16.8 NW 16.8 0.0 0.1
08:26 14.2 14.1 99 1017.6 16.8 NW 16.8 0.0 0.1
08:27 14.2 14.1 99 1017.4 16.8 SW 16.8 0.0 0.1
08:28 14.2 14.1 99 1017.7 18.3 SW 18.3 0.0 0.1
08:29 14.2 14.1 99 1017.7 15.2 NW 18.3 0.0 0.1
08:30 14.2 14.1 99 1017.6 15.2 WSW 18.3 0.0 0.1
08:31 14.2 14.1 99 1017.7 15.2 S 18.3 0.0 0.1
08:32 14.2 14.1 99 1017.4 18.3 NW 18.3 0.0 0.1
08:33 14.2 14.1 99 1017.6 16.8 SW 18.3 0.0 0.1
08:34 14.2 14.1 99 1017.7 13.0 SW 18.3 0.0 0.1
08:35 14.2 14.1 99 1017.6 15.2 SW 18.3 0.0 0.1
08:36 14.2 14.1 99 1017.7 13.0 WSW 18.3 0.0 0.1
08:37 14.2 14.1 99 1017.8 15.2 SW 18.3 0.0 0.1
08:38 14.2 14.1 99 1017.7 12.1 NW 18.3 0.0 0.1
08:39 14.2 14.1 99 1017.9 15.2 SW 18.3 0.0 0.1
08:40 14.2 14.1 99 1017.7 13.6 NE 18.3 0.0 0.1
08:41 14.2 14.1 99 1017.8 15.2 SW 18.3 0.0 0.1
08:42 14.2 14.1 99 1017.8 17.4 NW 17.4 0.0 0.1
08:43 14.2 14.1 99 1017.9 15.9 SW 17.4 0.0 0.1
08:44 14.2 14.1 99 1017.9 18.3 NNW 18.3 0.0 0.1
08:45 14.2 14.1 99 1017.8 15.9 SW 18.3 0.0 0.1
08:46 14.2 14.1 99 1018.0 15.9 SW 18.3 0.0 0.1
08:47 14.2 14.1 99 1018.0 13.0 S 18.3 0.0 0.1
08:48 14.2 14.1 99 1017.8 15.9 WSW 18.3 0.0 0.1
08:49 14.2 14.1 99 1017.7 15.9 WSW 18.3 0.0 0.1
08:50 14.2 14.1 99 1017.8 14.5 S 18.3 0.0 0.1
08:51 14.2 14.1 99 1017.6 18.3 SW 18.3 0.0 0.1
08:52 14.2 14.1 99 1017.9 11.4 SW 18.3 0.0 0.1
08:53 14.2 14.1 99 1018.0 12.1 S 18.3 0.0 0.1
08:54 14.2 14.1 99 1018.0 14.5 N 18.3 0.0 0.1
08:55 14.2 14.1 99 1017.9 13.6 S 18.3 0.0 0.1
08:56 14.2 14.1 99 1017.9 14.5 NW 18.3 0.0 0.1
08:57 14.3 14.2 99 1018.0 13.0 SW 18.3 0.0 0.1
08:58 14.3 14.2 99 1018.0 12.1 SW 18.3 0.0 0.1
08:59 14.3 14.2 99 1017.8 12.1 S 18.3 0.0 0.1
09:00 14.3 14.2 99 1017.9 14.5 SW 18.3 0.0 0.1
09:01 14.3 14.2 99 1017.9 14.5 SW 18.3 0.0 0.1
09:02 14.3 14.2 99 1017.8 14.5 SW 14.5 0.0 0.1
09:03 14.3 14.2 99 1018.0 14.5 SW 14.5 0.0 0.1
09:04 14.3 14.2 99 1017.8 14.5 SW 14.5 0.0 0.1
09:05 14.3 14.2 99 1018.0 14.5 SW 14.5 0.0 0.1
09:06 14.3 14.2 99 1017.9 14.5 SW 14.5 0.0 0.1
09:07 14.3 14.2 99 1018.0 14.5 SW 14.5 0.0 0.1
09:08 14.3 14.2 99 1017.9 14.5 SW 14.5 0.0 0.1
09:09 14.3 14.2 99 1018.0 12.1 NW 14.5 0.0 0.1
09:10 14.3 14.2 99 1017.9 12.1 SW 14.5 0.0 0.1
09:11 14.4 14.3 99 1018.0 13.6 W 14.5 0.0 0.1
09:12 14.4 14.3 99 1018.0 13.0 WSW 14.5 0.0 0.1
09:13 14.4 14.3 99 1018.0 9.2 SW 14.5 0.0 0.1
09:14 14.4 14.3 99 1018.0 9.2 SW 14.5 0.0 0.1
09:15 14.4 14.3 99 1017.8 11.4 NW 14.5 0.0 0.1
09:16 14.4 14.3 99 1018.0 11.4 SW 14.5 0.0 0.1
09:17 14.4 14.3 99 1018.0 12.1 SW 14.5 0.0 0.1
09:18 14.4 14.3 99 1018.0 9.8 NW 14.5 0.0 0.1
09:19 14.4 14.3 99 1018.2 9.8 W 13.6 0.0 0.1
09:20 14.4 14.3 99 1018.0 12.1 NW 13.6 0.0 0.1
09:21 14.4 14.3 99 1018.0 10.7 NW 13.6 0.0 0.1
09:22 14.4 14.3 99 1018.0 9.2 SSW 12.1 0.0 0.1
09:23 14.4 14.3 99 1018.0 8.3 WSW 12.1 0.0 0.1
09:24 14.4 14.3 99 1018.0 9.2 SW 12.1 0.0 0.1
09:25 14.4 14.3 99 1018.0 9.2 NW 12.1 0.0 0.1
09:26 14.5 14.4 99 1018.2 9.2 SW 12.1 0.0 0.1
09:27 14.4 14.3 99 1018.0 12.1 NW 12.1 0.0 0.1
09:28 14.5 14.4 99 1017.9 13.6 SW 13.6 0.0 0.1
09:29 14.4 14.3 99 1018.0 13.6 S 13.6 0.0 0.1
09:30 14.4 14.3 99 1018.0 11.4 S 13.6 0.0 0.1
09:31 14.4 14.3 99 1018.0 14.5 SW 15.9 0.0 0.1
09:32 14.4 14.3 99 1017.8 14.5 SW 15.9 0.0 0.1
09:33 14.4 14.3 99 1017.8 12.1 WSW 15.9 0.0 0.1
09:34 14.4 14.3 99 1017.9 13.0 S 15.9 0.0 0.1
09:35 14.4 14.3 99 1018.1 9.8 WNW 15.9 0.0 0.1
09:36 14.4 14.3 99 1017.9 14.5 NW 15.9 0.0 0.1
09:37 14.4 14.3 99 1017.8 10.7 NW 15.9 0.0 0.1
09:38 14.4 14.3 99 1018.0 13.0 NW 15.9 0.0 0.1
09:39 14.5 14.4 99 1017.8 13.0 WSW 15.9 0.0 0.1
09:40 14.4 14.3 99 1018.2 15.2 SW 15.9 0.0 0.1
09:41 14.4 14.3 99 1018.1 11.4 WSW 15.2 0.0 0.1
09:42 14.5 14.4 99 1018.2 13.6 NW 15.2 0.0 0.1
09:43 14.5 14.4 99 1018.0 9.2 SW 15.2 0.0 0.1
09:44 14.5 14.4 99 1018.0 9.8 SW 15.2 0.0 0.1
09:45 14.5 14.4 99 1017.9 11.4 SW 15.2 0.0 0.1
09:46 14.5 14.4 99 1018.0 11.4 SW 15.2 0.0 0.1
09:47 14.5 14.4 99 1018.2 15.9 NW 15.9 0.0 0.1
09:48 14.5 14.4 99 1018.1 14.5 WSW 15.9 0.0 0.1
09:49 14.5 14.4 99 1018.3 15.2 SW 15.9 0.0 0.1
09:50 14.5 14.4 99 1018.1 15.2 SW 15.9 0.0 0.1
09:51 14.5 14.4 99 1018.1 15.9 S 16.8 0.0 0.1
09:53 14.5 14.4 99 1018.1 13.0 SW 16.8 0.0 0.1
09:54 14.5 14.4 99 1018.1 9.2 SW 16.8 0.0 0.1
09:55 14.5 14.4 99 1018.3 13.0 SW 16.8 0.0 0.1
09:56 14.5 14.4 99 1018.3 18.3 SW 18.3 0.0 0.1
09:57 14.5 14.4 99 1018.1 13.0 S 18.3 0.0 0.1
09:58 14.5 14.4 99 1018.1 15.2 NW 18.3 0.0 0.1
09:59 14.5 14.4 99 1018.1 17.4 SW 18.3 0.0 0.1
10:00 14.4 14.3 99 1018.0 13.0 SW 18.3 0.0 0.1
10:01 14.4 14.3 99 1018.2 11.4 S 18.3 0.0 0.1
10:02 14.4 14.3 99 1018.2 15.2 NW 18.3 0.0 0.1
10:03 14.4 14.3 99 1018.3 20.6 WSW 20.6 0.0 0.1
10:04 14.4 14.3 99 1018.1 20.6 SW 20.6 0.0 0.1
10:05 14.4 14.3 99 1018.0 14.5 W 20.6 0.0 0.1
10:06 14.4 14.3 99 1018.3 14.5 SW 20.6 0.0 0.1
10:07 14.4 14.3 99 1018.3 14.5 SW 20.6 0.0 0.1
10:08 14.4 14.3 99 1018.2 13.0 SW 20.6 0.0 0.1
10:09 14.4 14.3 99 1018.4 13.6 SW 20.6 0.0 0.1
10:10 14.4 14.3 99 1018.2 15.9 SW 20.6 0.0 0.1
10:11 14.4 14.3 99 1018.0 13.0 SW 20.6 0.0 0.1
10:12 14.4 14.3 99 1018.1 9.8 S 20.6 0.0 0.1
10:13 14.4 14.3 99 1018.4 11.4 SW 20.6 0.0 0.1
10:14 14.4 14.3 99 1018.2 12.1 NW 20.6 0.0 0.1
10:15 14.4 14.3 99 1018.0 13.0 SW 15.9 0.0 0.1
10:16 14.4 14.3 99 1018.3 9.8 S 15.9 0.0 0.1
10:17 14.4 14.3 99 1018.3 6.9 SW 15.9 0.0 0.1
10:18 14.4 14.3 99 1018.2 10.7 SW 15.9 0.0 0.1
10:19 14.4 14.3 99 1018.2 11.4 SW 15.9 0.0 0.1
10:20 14.4 14.3 99 1018.4 12.1 SW 15.9 0.0 0.1
10:21 14.4 14.3 99 1018.2 12.1 NW 15.2 0.0 0.1
10:22 14.4 14.3 99 1018.4 11.4 SW 15.2 0.0 0.1
10:23 14.3 14.2 99 1018.0 9.8 SW 15.2 0.0 0.1
10:24 14.3 14.2 99 1018.4 12.1 SW 15.2 0.0 0.1
10:25 14.3 14.2 99 1018.4 15.2 SW 15.2 0.0 0.1
10:26 14.3 14.2 99 1018.2 13.0 SW 15.2 0.0 0.1
10:27 14.3 14.2 99 1018.3 12.1 SW 15.2 0.0 0.1
10:28 14.3 14.2 99 1018.3 13.6 S 15.2 0.0 0.1
10:29 14.3 14.2 99 1018.4 13.6 SW 15.2 0.0 0.1
10:30 14.3 14.2 99 1018.3 9.2 SW 15.2 0.0 0.1
10:31 14.3 14.2 99 1018.3 14.5 SW 15.2 0.0 0.1
10:32 14.3 14.2 99 1018.3 12.1 NW 15.2 0.0 0.1
10:33 14.3 14.2 99 1018.3 13.6 SW 15.2 0.0 0.1
10:34 14.3 14.2 99 1018.3 14.5 WSW 15.2 0.0 0.1
10:35 14.4 14.3 99 1018.2 10.7 SW 15.2 0.0 0.1
10:36 14.4 14.3 99 1018.3 10.7 SW 14.5 0.0 0.1
10:37 14.4 14.3 99 1018.3 13.6 S 14.5 0.0 0.1
10:38 14.4 14.3 99 1018.4 12.1 SW 14.5 0.0 0.1
10:39 14.4 14.3 99 1018.4 14.5 SW 14.5 0.0 0.1
10:40 14.4 14.3 99 1018.3 10.7 W 14.5 0.0 0.1
10:41 14.5 14.4 99 1018.4 14.5 SW 14.5 0.0 0.1
10:42 14.5 14.4 99 1018.2 13.0 SW 14.5 0.0 0.1
10:43 14.5 14.4 99 1018.4 13.0 NW 14.5 0.0 0.1
10:44 14.5 14.4 99 1018.4 10.7 SW 14.5 0.0 0.1
10:45 14.5 14.4 99 1018.3 12.1 WSW 14.5 0.0 0.1
10:46 14.5 14.4 99 1018.4 12.1 SW 14.5 0.0 0.1
10:47 14.5 14.4 99 1018.3 14.5 SW 14.5 0.0 0.1
10:48 14.5 14.4 99 1018.4 14.5 NW 14.5 0.0 0.1
10:49 14.5 14.4 99 1018.2 13.0 SW 14.5 0.0 0.1
10:50 14.5 14.4 99 1018.3 15.9 SW 15.9 0.0 0.1
10:51 14.5 14.4 99 1018.4 14.5 SW 15.9 0.0 0.1
10:52 14.5 14.4 99 1018.5 9.2 NW 15.9 0.0 0.1
10:53 14.5 14.4 99 1018.6 13.6 SW 15.9 0.0 0.1
10:54 14.5 14.4 99 1018.3 15.9 SW 15.9 0.0 0.1
10:55 14.5 14.4 99 1018.4 11.4 WSW 15.9 0.0 0.1
10:56 14.5 14.4 99 1018.3 11.4 SW 15.9 0.0 0.1
10:57 14.5 14.4 99 1018.5 13.6 SW 15.9 0.0 0.1
10:58 14.5 14.4 99 1018.5 13.6 SW 15.9 0.0 0.1
10:59 14.5 14.4 99 1018.2 12.1 SW 15.9 0.0 0.1
11:00 14.5 14.4 99 1018.1 10.7 SW 15.9 0.0 0.1
11:01 14.5 14.4 99 1018.4 10.7 SW 15.9 0.0 0.1
11:02 14.5 14.4 99 1018.4 10.7 SW 15.9 0.0 0.1
11:03 14.5 14.4 99 1018.4 10.7 SW 15.9 0.0 0.1
11:04 14.5 14.4 99 1018.4 10.7 SW 15.9 0.0 0.1
11:05 14.5 14.4 99 1018.5 10.7 SW 13.6 0.0 0.1
11:06 14.4 14.1 98 1018.5 16.8 NW 17.4 0.0 0.1
11:07 14.4 14.1 98 1018.6 14.5 S 17.4 0.0 0.1
11:08 14.4 14.1 98 1018.4 10.7 NW 17.4 0.0 0.1
11:09 14.5 14.2 98 1018.5 9.2 SW 17.4 0.0 0.1
11:10 14.5 14.2 98 1018.4 10.7 SW 17.4 0.0 0.1
11:11 14.5 14.2 98 1018.5 10.7 SW 17.4 0.0 0.1
11:12 14.5 14.2 98 1018.4 8.3 NW 17.4 0.0 0.1
11:13 14.6 14.5 99 1018.5 9.8 S 17.4 0.0 0.1
11:14 14.6 14.5 99 1018.5 15.9 S 17.4 0.0 0.1
11:15 14.6 14.5 99 1018.4 12.1 SW 17.4 0.0 0.1
11:16 14.7 14.6 99 1018.4 11.4 NW 16.8 0.0 0.1
11:17 14.7 14.6 99 1018.3 12.1 WSW 15.9 0.0 0.1
11:18 14.7 14.6 99 1018.4 12.1 SW 15.9 0.0 0.1
11:19 14.7 14.6 99 1018.5 13.6 S 15.9 0.0 0.1
11:20 14.7 14.6 99 1018.4 13.0 SW 15.9 0.0 0.1
11:21 14.8 14.7 99 1018.3 13.0 SW 15.9 0.0 0.1
11:22 14.8 14.7 99 1018.4 13.0 W 15.9 0.0 0.1
11:23 14.8 14.7 99 1018.5 14.5 SW 15.9 0.0 0.1
11:24 14.8 14.7 99 1018.4 14.5 S 15.9 0.0 0.1
11:25 14.8 14.7 99 1018.5 12.1 SW 14.5 0.0 0.1
11:26 14.8 14.7 99 1018.4 13.6 SW 14.5 0.0 0.1
11:27 14.9 14.8 99 1018.4 13.6 S 14.5 0.0 0.1
11:28 14.9 14.8 99 1018.5 17.4 SW 17.4 0.0 0.1
11:29 14.8 14.5 98 1018.6 15.9 SW 17.4 0.0 0.1
11:30 14.8 14.5 98 1018.5 15.9 SW 17.4 0.0 0.1
11:31 14.8 14.5 98 1018.4 15.2 SW 17.4 0.0 0.1
11:32 14.8 14.5 98 1018.4 15.2 SW 17.4 0.0 0.1
11:33 14.8 14.5 98 1018.5 12.1 SW 17.4 0.0 0.1
11:34 14.8 14.5 98 1018.5 9.2 S 17.4 0.0 0.1
11:35 14.8 14.5 98 1018.6 12.1 SW 17.4 0.0 0.1
11:36 14.7 14.4 98 1018.6 16.8 S 17.4 0.0 0.1
11:37 14.7 14.4 98 1018.6 14.5 W 17.4 0.0 0.1
11:38 14.7 14.4 98 1018.4 14.5 SW 17.4 0.0 0.1
11:39 14.7 14.4 98 1018.6 13.6 SW 16.8 0.0 0.1
11:40 14.7 14.4 98 1018.6 12.1 S 16.8 0.0 0.1
11:41 14.7 14.4 98 1018.5 11.4 S 16.8 0.0 0.1
11:42 14.7 14.4 98 1018.6 12.1 SW 16.8 0.0 0.1
11:43 14.7 14.4 98 1018.9 13.6 W 16.8 0.0 0.1
11:44 14.7 14.4 98 1018.6 13.6 S 16.8 0.0 0.1
11:45 14.8 14.5 98 1018.6 15.2 NW 16.8 0.0 0.1
11:46 14.8 14.5 98 1018.6 15.2 NW 16.8 0.0 0.1
11:47 14.8 14.5 98 1018.5 13.6 SW 15.2 0.0 0.1
11:48 14.8 14.5 98 1018.3 13.6 SW 15.2 0.0 0.1
11:49 14.8 14.5 98 1018.8 13.6 SW 15.2 0.0 0.1
11:50 14.8 14.5 98 1018.9 12.1 NE 15.2 0.0 0.1
11:51 14.8 14.3 97 1018.8 10.7 SW 15.2 0.0 0.1
11:52 14.8 14.3 97 1018.8 13.0 SW 15.2 0.0 0.1
11:53 14.8 14.3 97 1018.5 15.9 SW 15.9 0.0 0.1
11:54 14.8 14.3 97 1018.8 14.5 SW 15.9 0.0 0.1
11:55 14.8 14.3 97 1018.8 15.9 SW 15.9 0.0 0.1
11:56 14.8 14.3 97 1018.9 13.0 S 15.9 0.0 0.1
11:57 14.8 14.3 97 1018.5 13.0 W 15.9 0.0 0.1
11:58 14.8 14.3 97 1018.8 13.0 W 15.9 0.0 0.1
11:59 14.8 14.3 97 1018.8 15.2 SW 15.9 0.0 0.1
12:00 14.8 14.3 97 1018.9 15.2 W 15.9 0.0 0.1
12:01 14.8 14.3 97 1018.7 15.2 W 15.9 0.0 0.1
12:02 14.8 14.3 97 1018.8 15.2 W 15.9 0.0 0.1
12:03 14.8 14.3 97 1018.7 15.2 W 15.9 0.0 0.1
12:04 14.8 14.3 97 1018.8 15.2 W 15.9 0.0 0.1
12:05 14.8 14.3 97 1018.8 15.2 W 15.9 0.0 0.1
12:06 14.7 14.2 97 1019.1 19.0 S 19.0 0.0 0.1
12:07 14.7 14.2 97 1018.9 15.9 W 19.0 0.0 0.1
12:08 14.7 14.2 97 1019.0 17.4 NW 19.0 0.0 0.1
12:09 14.7 14.1 96 1018.7 15.2 SW 19.0 0.0 0.1
12:10 14.7 14.1 96 1018.6 15.2 SW 19.0 0.0 0.1
12:11 14.7 14.1 96 1018.8 13.6 S 19.0 0.0 0.1
12:12 14.7 14.1 96 1018.8 16.8 SW 19.0 0.0 0.1
12:13 14.7 14.1 96 1018.9 12.1 SSW 19.0 0.0 0.1
12:14 14.7 14.1 96 1018.9 13.6 S 19.0 0.0 0.1
12:15 14.7 14.1 96 1019.0 13.6 WSW 19.0 0.0 0.1
12:16 14.7 14.1 96 1018.9 11.4 W 19.0 0.0 0.1
12:17 14.8 14.2 96 1019.0 14.5 SW 17.4 0.0 0.1
12:18 14.8 14.2 96 1018.8 14.5 SW 17.4 0.0 0.1
12:19 14.8 14.2 96 1019.0 11.4 SW 16.8 0.0 0.1
12:20 14.8 14.2 96 1018.7 13.6 SW 16.8 0.0 0.1
12:21 14.8 14.2 96 1018.7 13.6 SW 16.8 0.0 0.1
12:22 14.8 14.2 96 1019.0 15.9 W 16.8 0.0 0.1
12:23 14.8 14.2 96 1018.9 12.1 SW 15.9 0.0 0.1
12:24 14.9 14.3 96 1018.8 10.7 S 15.9 0.0 0.1
12:25 14.9 14.3 96 1018.9 16.8 S 16.8 0.0 0.1
12:26 14.9 14.3 96 1018.8 13.6 W 16.8 0.0 0.1
12:27 14.9 14.3 96 1018.9 21.3 SW 21.3 0.0 0.1
12:28 14.9 14.3 96 1018.7 15.9 S 21.3 0.0 0.1
12:29 14.9 14.3 96 1018.8 19.7 SW 21.3 0.0 0.1
12:30 14.9 14.3 96 1018.8 19.7 SW 21.3 0.0 0.1
12:31 14.9 14.3 96 1018.6 15.2 SW 21.3 0.0 0.1
12:32 14.9 14.3 96 1018.8 15.2 WSW 21.3 0.0 0.1
12:33 14.9 14.3 96 1018.8 17.4 W 21.3 0.0 0.1
12:34 14.9 14.3 96 1018.8 18.3 S 21.3 0.0 0.1
12:35 14.9 14.1 95 1018.8 17.4 W 21.3 0.0 0.1
12:36 14.9 14.1 95 1019.0 14.5 SW 21.3 0.0 0.1
12:37 14.9 14.1 95 1018.8 18.3 SW 21.3 0.0 0.1
12:38 14.9 14.1 95 1018.8 18.3 WNW 19.7 0.0 0.1
12:39 14.9 14.1 95 1018.8 15.9 SW 19.7 0.0 0.1
12:40 14.9 14.1 95 1018.8 14.5 S 19.7 0.0 0.1
12:41 14.9 14.1 95 1018.9 15.2 SW 18.3 0.0 0.1
12:42 14.9 14.1 95 1019.1 17.4 SW 18.3 0.0 0.1
12:43 14.9 14.1 95 1018.9 15.2 SE 18.3 0.0 0.1
12:44 14.9 13.9 94 1018.8 19.7 SW 19.7 0.0 0.1
12:45 14.8 13.9 94 1018.8 15.9 W 19.7 0.0 0.1
12:46 14.8 13.9 94 1019.0 17.4 W 19.7 0.0 0.1
12:47 14.8 13.9 94 1018.9 17.4 SW 19.7 0.0 0.1
12:48 14.8 13.9 94 1019.0 24.4 SW 24.4 0.0 0.1
12:49 14.8 13.9 94 1018.9 19.0 S 24.4 0.0 0.1
12:50 14.8 13.9 94 1019.1 19.7 NW 24.4 0.0 0.1
12:51 14.8 13.9 94 1018.8 13.6 SW 24.4 0.0 0.1
12:52 14.9 13.9 94 1018.8 10.7 SW 24.4 0.0 0.1
12:53 14.9 13.9 94 1018.9 14.5 WSW 24.4 0.0 0.1
12:54 14.9 13.9 94 1018.9 12.1 NW 24.4 0.0 0.1
12:55 14.9 13.9 94 1018.7 13.6 SW 24.4 0.0 0.1
12:56 15.0 14.0 94 1018.9 13.6 WSW 24.4 0.0 0.1
12:57 15.0 14.0 94 1018.8 13.0 WSW 24.4 0.0 0.1
12:58 15.0 14.0 94 1018.9 15.2 SW 19.7 0.0 0.1
12:59 15.0 13.9 93 1018.8 16.8 S 19.7 0.0 0.1
13:00 15.0 13.9 93 1019.0 18.3 S 19.0 0.0 0.1
13:01 15.0 13.9 93 1019.0 18.3 S 18.3 0.0 0.1
13:02 15.0 13.9 93 1018.8 18.3 S 18.3 0.0 0.1
13:03 14.9 13.8 93 1018.8 14.5 SW 18.3 0.0 0.1
13:04 14.9 13.8 93 1018.8 14.5 SW 18.3 0.0 0.1
13:05 14.9 13.8 93 1018.8 13.6 SSW 18.3 0.0 0.1
13:06 14.9 13.8 93 1019.0 13.6 W 18.3 0.0 0.1
13:07 14.9 13.8 93 1019.0 13.0 SW 18.3 0.0 0.1
13:08 14.9 13.8 93 1018.8 11.4 SW 18.3 0.0 0.1
13:09 14.9 13.8 93 1018.9 10.7 NW 18.3 0.0 0.1
13:10 14.9 13.6 92 1018.8 16.8 SW 18.3 0.0 0.1
13:11 14.9 13.6 92 1019.0 13.0 S 18.3 0.0 0.1
13:12 14.9 13.6 92 1019.0 15.2 SW 16.8 0.0 0.1
13:13 14.9 13.6 92 1018.9 11.4 WSW 16.8 0.0 0.1
13:14 14.9 13.6 92 1019.0 18.3 SW 18.3 0.0 0.1
13:15 14.8 13.5 92 1018.9 18.3 SW 18.3 0.0 0.1
13:16 14.8 13.5 92 1018.9 13.0 SW 18.3 0.0 0.1
13:17 14.8 13.5 92 1019.0 13.6 SE 18.3 0.0 0.1
13:18 14.8 13.5 92 1019.0 15.2 SW 18.3 0.0 0.1
13:19 14.8 13.5 92 1019.0 13.6 SW 18.3 0.0 0.1
13:20 14.8 13.5 92 1019.0 13.6 SW 18.3 0.0 0.1
13:21 14.8 13.5 92 1018.8 16.8 SW 18.3 0.0 0.1
13:22 14.8 13.5 92 1018.8 9.8 SW 18.3 0.0 0.1
13:23 14.8 13.5 92 1018.8 15.2 SW 18.3 0.0 0.1
13:24 14.8 13.5 92 1019.0 13.6 SW 18.3 0.0 0.1
13:25 14.8 13.5 92 1018.9 13.6 SW 18.3 0.0 0.1
13:26 14.8 13.5 92 1019.0 13.6 SW 16.8 0.0 0.1
13:27 14.8 13.5 92 1018.9 10.7 SW 16.8 0.0 0.1
13:28 14.8 13.5 92 1018.9 10.7 SW 16.8 0.0 0.1
13:29 14.8 13.5 92 1019.1 14.5 SW 16.8 0.0 0.1
13:30 14.8 13.5 92 1019.0 15.2 S 16.8 0.0 0.1
13:31 14.8 13.5 92 1018.9 15.2 SW 15.2 0.0 0.1
13:32 14.8 13.5 92 1018.9 12.1 SW 15.2 0.0 0.1
13:33 14.8 13.5 92 1019.0 15.2 SW 15.2 0.0 0.1
13:34 14.8 13.5 92 1019.0 15.2 SW 15.2 0.0 0.1
13:35 14.8 13.5 92 1018.8 13.6 SW 15.2 0.0 0.1
13:36 14.8 13.5 92 1018.9 13.6 SW 15.2 0.0 0.1
13:37 14.8 13.5 92 1018.9 15.9 SSW 15.9 0.0 0.1
13:38 14.8 13.5 92 1018.7 15.2 SW 15.9 0.0 0.1
13:39 14.8 13.5 92 1018.9 14.5 WSW 15.9 0.0 0.1
13:40 14.8 13.5 92 1018.7 14.5 WSW 15.9 0.0 0.1
13:41 14.8 13.5 92 1018.8 13.6 SW 15.9 0.0 0.1
13:42 14.8 13.5 92 1018.9 13.0 NW 15.9 0.0 0.1
13:43 14.8 13.5 92 1018.9 13.6 SW 15.9 0.0 0.1
13:44 14.8 13.5 92 1019.0 14.5 SW 15.9 0.0 0.1
13:45 14.8 13.5 92 1018.6 13.0 WSW 15.9 0.0 0.1
13:46 14.8 13.5 92 1018.7 15.9 S 15.9 0.0 0.1
13:47 14.8 13.5 92 1018.9 15.9 W 15.9 0.0 0.1
13:48 14.8 13.5 92 1018.7 11.4 SSW 15.9 0.0 0.1
13:49 14.8 13.5 92 1018.9 10.7 S 15.9 0.0 0.1
13:50 14.8 13.5 92 1018.8 13.0 SW 15.9 0.0 0.1
13:51 14.9 13.6 92 1018.8 14.5 SW 15.9 0.0 0.1
13:52 14.9 13.6 92 1018.8 15.9 SW 15.9 0.0 0.1
13:53 14.9 13.6 92 1019.0 15.9 SW 15.9 0.0 0.1
13:54 14.9 13.6 92 1018.8 14.5 SW 15.9 0.0 0.1
13:55 14.9 13.6 92 1018.8 15.9 SW 15.9 0.0 0.1
13:56 14.9 13.6 92 1018.8 15.9 S 15.9 0.0 0.1
13:57 14.9 13.6 92 1018.7 10.7 SW 15.9 0.0 0.1
13:58 14.9 13.6 92 1018.8 19.0 SW 19.0 0.0 0.1
13:59 15.0 13.7 92 1018.8 19.0 WSW 19.0 0.0 0.1
14:00 15.0 13.7 92 1018.7 15.9 WSW 19.0 0.0 0.1
14:01 15.0 13.7 92 1018.8 15.9 WSW 19.0 0.0 0.1
14:02 15.0 13.7 92 1018.7 15.9 WSW 19.0 0.0 0.1
14:03 15.0 13.7 92 1018.7 15.9 WSW 19.0 0.0 0.1
14:04 15.0 13.7 92 1018.8 15.9 WSW 19.0 0.0 0.1
14:05 15.0 13.7 92 1018.9 15.9 WSW 19.0 0.0 0.1
14:06 15.0 13.7 92 1018.7 22.1 SW 22.1 0.0 0.1
14:07 15.0 13.7 92 1018.8 13.0 SW 22.1 0.0 0.1
14:08 15.1 13.8 92 1018.7 15.2 SW 22.1 0.0 0.1
14:09 15.0 13.7 92 1018.7 13.0 SW 22.1 0.0 0.1
14:10 15.0 13.7 92 1018.8 13.6 SW 22.1 0.0 0.1
14:11 15.0 13.7 92 1018.9 16.8 SW 22.1 0.0 0.1
14:12 15.0 13.7 92 1018.7 14.5 NE 22.1 0.0 0.1
14:13 15.0 13.7 92 1018.9 16.8 SW 22.1 0.0 0.1
14:14 15.0 13.7 92 1018.8 13.6 SW 22.1 0.0 0.1
14:15 15.0 13.7 92 1018.7 16.8 NW 22.1 0.0 0.1
14:16 15.0 13.7 92 1018.7 16.8 SW 17.4 0.0 0.1
14:17 15.0 13.7 92 1018.8 11.4 NW 17.4 0.0 0.1
14:18 15.0 13.7 92 1018.6 15.2 S 17.4 0.0 0.1
14:19 15.0 13.7 92 1018.6 15.2 SW 17.4 0.0 0.1
14:20 15.0 13.7 92 1018.8 13.0 NW 17.4 0.0 0.1
14:21 15.0 13.7 92 1018.7 14.5 SW 16.8 0.0 0.1
14:22 15.0 13.7 92 1018.7 14.5 SW 16.8 0.0 0.1
14:23 15.0 13.7 92 1018.6 13.6 NW 16.8 0.0 0.1
14:24 14.9 13.8 93 1018.6 11.4 SW 16.8 0.0 0.1
14:25 15.0 13.9 93 1018.7 11.4 S 16.8 0.0 0.1
14:26 15.0 13.9 93 1018.7 9.8 WSW 16.8 0.0 0.1
14:27 15.0 13.9 93 1018.6 16.8 S 16.8 0.0 0.1
14:28 15.0 13.9 93 1018.7 12.1 SW 16.8 0.0 0.1
14:29 14.9 13.8 93 1018.7 12.1 SW 16.8 0.0 0.1
14:30 14.9 13.8 93 1018.6 13.0 S 16.8 0.0 0.1
14:31 14.9 13.8 93 1018.6 15.2 SW 16.8 0.0 0.1
14:32 14.9 13.8 93 1018.8 15.9 SW 16.8 0.0 0.1
14:33 14.9 13.8 93 1018.9 13.6 SW 16.8 0.0 0.1
14:34 14.9 13.8 93 1018.9 13.6 SW 16.8 0.0 0.1
14:35 14.9 13.8 93 1018.6 18.3 SW 18.3 0.0 0.1
14:36 14.9 13.8 93 1018.7 13.0 NW 18.3 0.0 0.1
14:37 14.9 13.8 93 1018.5 18.3 SW 18.3 0.0 0.1
14:38 14.9 13.8 93 1018.6 18.3 W 18.3 0.0 0.1
14:39 14.9 13.8 93 1018.5 17.4 SW 18.3 0.0 0.1
14:40 14.9 13.8 93 1018.5 12.1 SW 18.3 0.0 0.1
14:41 14.9 13.8 93 1018.5 12.1 S 18.3 0.0 0.1
14:42 14.9 13.8 93 1018.7 16.8 SW 18.3 0.0 0.1
14:43 14.9 13.8 93 1018.7 17.4 S 18.3 0.0 0.1
14:44 14.9 13.8 93 1018.3 14.5 W 18.3 0.0 0.1
14:45 14.9 13.8 93 1018.8 15.9 N 18.3 0.0 0.1
14:46 14.9 13.8 93 1018.5 15.9 S 18.3 0.0 0.1
14:47 14.9 13.8 93 1018.4 13.0 WSW 18.3 0.0 0.1
14:48 14.9 13.8 93 1018.5 13.0 SW 17.4 0.0 0.1
14:49 14.9 13.8 93 1018.5 12.1 SW 17.4 0.0 0.1
14:50 14.8 13.7 93 1018.6 12.1 SW 17.4 0.0 0.1
14:51 14.8 13.7 93 1018.7 8.3 SW 17.4 0.0 0.1
14:52 14.8 13.9 94 1018.6 13.6 SW 17.4 0.0 0.1
14:53 14.8 13.9 94 1018.5 17.4 SW 17.4 0.0 0.1
14:54 14.8 13.9 94 1018.6 15.9 WSW 17.4 0.0 0.1
14:55 14.8 13.9 94 1018.5 13.0 SW 17.4 0.0 0.1
14:56 14.8 13.9 94 1018.5 15.9 NW 17.4 0.0 0.1
14:57 14.8 13.9 94 1018.5 12.1 NW 17.4 0.0 0.1
14:58 14.8 13.9 94 1018.6 15.9 SW 17.4 0.0 0.1
14:59 14.8 13.9 94 1018.6 15.9 SW 17.4 0.0 0.1
15:00 14.8 13.9 94 1018.3 14.5 S 17.4 0.0 0.1
15:01 14.8 13.9 94 1018.4 14.5 S 17.4 0.0 0.1
15:02 14.8 13.9 94 1018.5 14.5 S 17.4 0.0 0.1
15:03 14.8 13.9 94 1018.6 14.5 S 15.9 0.0 0.1
15:04 14.8 13.9 94 1018.5 14.5 S 15.9 0.0 0.1
15:05 14.8 13.9 94 1018.6 14.5 S 15.9 0.0 0.1
15:06 14.7 13.8 94 1018.6 15.2 S 15.9 0.0 0.1
15:07 14.7 13.8 94 1018.6 9.8 SW 15.9 0.0 0.1
15:08 14.7 13.8 94 1018.4 11.4 SW 15.9 0.0 0.1
15:09 14.7 13.8 94 1018.4 11.4 S 15.9 0.0 0.1
15:10 14.7 13.8 94 1018.8 13.6 S 15.2 0.0 0.1
15:11 14.7 13.9 95 1018.6 15.2 S 15.2 0.0 0.1
15:12 14.7 13.9 95 1018.6 15.9 SW 15.9 0.0 0.1
15:14 14.7 13.9 95 1018.4 13.6 SW 15.9 0.0 0.1
15:15 14.7 13.9 95 1018.5 11.4 S 15.9 0.0 0.1
15:16 14.7 13.9 95 1018.5 13.6 S 15.9 0.0 0.1
15:17 14.7 13.9 95 1018.3 13.0 SW 15.9 0.0 0.1
15:18 14.7 13.9 95 1018.5 13.0 SW 15.9 0.0 0.1
15:19 14.7 13.9 95 1018.3 13.0 SW 15.9 0.0 0.1
15:20 14.7 13.9 95 1018.2 18.3 SW 18.3 0.0 0.1
15:21 14.7 13.9 95 1018.4 16.8 SW 18.3 0.0 0.1
15:22 14.7 13.9 95 1018.5 15.9 SW 18.3 0.0 0.1
15:23 14.7 13.9 95 1018.3 15.9 SW 18.3 0.0 0.1
15:24 14.7 13.9 95 1018.3 15.9 SW 18.3 0.0 0.1
15:25 14.7 13.9 95 1018.5 13.0 SW 18.3 0.0 0.1
15:26 14.7 13.9 95 1018.0 18.3 SW 18.3 0.0 0.1
15:27 14.7 14.1 96 1018.4 13.6 SW 18.3 0.0 0.1
15:28 14.7 14.1 96 1018.5 17.4 SW 18.3 0.0 0.1
15:29 14.7 14.1 96 1018.4 17.4 SW 18.3 0.0 0.1
15:30 14.7 14.1 96 1018.4 13.6 SW 18.3 0.0 0.1
15:31 14.7 14.1 96 1018.4 15.2 NW 18.3 0.0 0.1
15:33 14.7 14.1 96 1018.3 11.4 SW 18.3 0.0 0.1
15:34 14.7 14.1 96 1018.4 11.4 SW 18.3 0.0 0.1
15:35 14.7 14.1 96 1018.4 12.1 S 18.3 0.0 0.1
15:36 14.7 14.1 96 1018.2 15.2 SW 18.3 0.0 0.1
15:37 14.7 14.1 96 1018.3 13.6 NW 17.4 0.0 0.1
15:38 14.7 14.1 96 1018.4 13.6 SW 17.4 0.0 0.1
15:39 14.7 14.1 96 1018.3 14.5 SW 15.2 0.0 0.1
15:40 14.7 14.1 96 1018.5 16.8 S 16.8 0.0 0.1
15:41 14.7 14.1 96 1018.5 16.8 SW 16.8 0.0 0.1
15:42 14.6 14.0 96 1018.3 15.9 SW 16.8 0.0 0.1
15:43 14.6 14.0 96 1018.3 13.0 SW 16.8 0.0 0.1
15:44 14.6 14.0 96 1018.3 12.1 S 16.8 0.0 0.1
15:45 14.6 14.0 96 1018.2 15.9 SW 16.8 0.0 0.1
15:46 14.6 14.0 96 1018.1 15.9 SW 16.8 0.0 0.1
15:47 14.6 14.0 96 1018.3 14.5 SW 16.8 0.0 0.1
15:48 14.6 14.0 96 1018.5 9.8 NW 16.8 0.0 0.1
15:49 14.6 14.0 96 1018.1 10.7 NW 16.8 0.0 0.1
15:50 14.6 14.0 96 1018.0 15.9 SW 16.8 0.0 0.1
15:51 14.6 14.0 96 1018.3 20.6 NW 20.6 0.0 0.1
15:52 14.6 14.0 96 1018.3 18.3 S 20.6 0.0 0.1
15:53 14.6 14.1 97 1018.1 15.2 SW 20.6 0.0 0.1
15:54 14.6 14.1 97 1018.7 15.9 SW 20.6 0.0 0.1
15:55 14.6 14.1 97 1018.3 15.9 WNW 20.6 0.0 0.1
15:56 14.6 14.1 97 1017.9 14.5 SW 20.6 0.0 0.1
15:57 14.6 14.1 97 1018.3 17.4 NW 20.6 0.0 0.1
15:58 14.6 14.1 97 1018.2 17.4 SW 20.6 0.0 0.1
15:59 14.6 14.1 97 1018.1 20.6 SW 20.6 0.0 0.1
16:00 14.6 14.1 97 1018.3 11.4 SW 20.6 0.0 0.1
16:01 14.6 14.1 97 1018.2 11.4 SW 20.6 0.0 0.1
16:02 14.6 14.1 97 1018.0 11.4 SW 20.6 0.0 0.1
16:03 14.6 14.1 97 1018.3 11.4 SW 20.6 0.0 0.1
16:04 14.6 14.1 97 1018.4 11.4 SW 20.6 0.0 0.1
16:05 14.6 14.1 97 1018.4 11.4 SW 20.6 0.0 0.1
16:06 14.6 14.1 97 1018.5 11.4 SW 20.6 0.0 0.1
16:07 14.6 14.1 97 1018.2 11.4 SW 20.6 0.0 0.1
16:08 14.6 14.1 97 1018.3 15.9 SW 20.6 0.0 0.1
16:09 14.6 14.1 97 1018.2 22.1 S 22.1 0.0 0.1
16:10 14.6 14.1 97 1018.2 22.1 S 22.1 0.0 0.1
16:11 14.6 14.1 97 1018.3 22.1 SW 22.1 0.0 0.1
16:12 14.6 14.1 97 1018.4 18.3 S 22.1 0.0 0.1
16:13 14.6 14.1 97 1018.3 15.2 SW 22.1 0.0 0.1
16:14 14.6 14.1 97 1018.0 21.3 S 22.1 0.0 0.1
16:15 14.6 14.1 97 1018.3 19.7 S 22.1 0.0 0.1
16:16 14.6 14.1 97 1018.2 13.6 SW 22.1 0.0 0.1
16:17 14.6 14.1 97 1018.3 18.3 S 22.1 0.0 0.1
16:19 14.6 14.1 97 1018.3 15.9 WSW 22.1 0.0 0.1
16:20 14.6 14.1 97 1018.3 14.5 SW 22.1 0.0 0.1
16:21 14.6 14.1 97 1018.1 19.0 SW 22.1 0.0 0.1
16:22 14.6 14.1 97 1018.4 21.3 S 21.3 0.0 0.1
16:23 14.6 14.1 97 1018.0 18.3 S 21.3 0.0 0.1
16:24 14.6 14.1 97 1018.2 15.2 S 21.3 0.0 0.1
16:25 14.6 14.1 97 1018.2 19.0 S 21.3 0.0 0.1
16:26 14.6 14.1 97 1018.3 15.2 S 21.3 0.0 0.1
16:27 14.6 14.1 97 1018.2 18.3 NW 21.3 0.0 0.1
16:28 14.6 14.1 97 1018.2 14.5 S 21.3 0.0 0.1
16:29 14.6 14.1 97 1018.2 15.2 SW 21.3 0.0 0.1
16:30 14.6 14.1 97 1018.2 15.2 SW 21.3 0.0 0.1
16:31 14.6 14.1 97 1018.2 18.3 S 21.3 0.0 0.1
16:32 14.6 14.1 97 1018.1 16.8 S 21.3 0.0 0.1
16:33 14.6 14.1 97 1018.2 16.8 S 19.0 0.0 0.1
16:34 14.6 14.1 97 1018.1 19.7 S 19.7 0.0 0.1
16:35 14.6 14.1 97 1018.0 13.6 SW 19.7 0.0 0.1
16:36 14.6 14.1 97 1018.2 13.6 SW 19.7 0.0 0.1
16:37 14.6 14.1 97 1018.3 18.3 SW 19.7 0.0 0.1
16:38 14.6 14.1 97 1018.1 18.3 S 19.7 0.0 0.1
16:39 14.6 14.1 97 1018.2 18.3 S 19.7 0.0 0.1
16:40 14.6 14.3 98 1018.2 22.1 S 22.1 0.0 0.1
16:41 14.6 14.3 98 1018.1 15.2 NW 22.1 0.0 0.1
16:42 14.6 14.3 98 1018.1 15.2 NW 22.1 0.0 0.1
16:43 14.6 14.3 98 1018.3 17.4 WSW 22.1 0.0 0.1
16:44 14.6 14.3 98 1018.2 17.4 WSW 22.1 0.0 0.1
16:45 14.6 14.3 98 1018.2 16.8 WSW 22.1 0.0 0.1
16:46 14.6 14.3 98 1018.1 15.2 SW 22.1 0.0 0.1
16:47 14.6 14.3 98 1018.2 14.5 SW 22.1 0.0 0.1
16:48 14.6 14.3 98 1018.2 14.5 SW 22.1 0.0 0.1
16:49 14.6 14.3 98 1018.2 13.0 W 22.1 0.0 0.1
16:50 14.6 14.3 98 1018.2 14.5 WSW 17.4 0.0 0.1
16:51 14.6 14.3 98 1018.0 17.4 SW 17.4 0.0 0.1
16:52 14.6 14.3 98 1018.1 17.4 SW 17.4 0.0 0.1
16:53 14.6 14.3 98 1018.1 15.9 NW 19.7 0.0 0.1
16:54 14.6 14.3 98 1018.2 13.6 NW 19.7 0.0 0.1
16:55 14.6 14.3 98 1018.1 13.6 NW 19.7 0.0 0.1
16:56 14.6 14.3 98 1018.2 16.8 S 19.7 0.0 0.1
16:57 14.6 14.3 98 1018.3 17.4 S 19.7 0.0 0.1
16:58 14.6 14.3 98 1018.3 17.4 S 19.7 0.0 0.1
16:59 14.6 14.3 98 1018.2 14.5 NW 19.7 0.0 0.1
17:00 14.6 14.3 98 1018.0 14.5 SW 19.7 0.0 0.1
17:01 14.6 14.3 98 1018.3 14.5 SW 19.7 0.0 0.1
17:02 14.6 14.3 98 1018.2 14.5 SW 19.7 0.0 0.1
17:03 14.6 14.3 98 1018.3 14.5 SW 19.7 0.0 0.1
17:04 14.6 14.3 98 1018.2 14.5 SW 17.4 0.0 0.1
17:05 14.6 14.3 98 1018.3 14.5 SW 17.4 0.0 0.1
17:06 14.6 14.3 98 1018.2 14.5 SW 17.4 0.0 0.1
17:07 14.6 14.3 98 1018.3 14.5 SW 17.4 0.0 0.1
17:08 14.6 14.3 98 1018.2 14.5 SW 17.4 0.0 0.1
17:09 14.6 14.3 98 1018.3 12.1 SW 14.5 0.0 0.1
17:10 14.6 14.3 98 1018.1 22.1 SW 22.1 0.0 0.1
17:11 14.6 14.3 98 1018.0 22.1 SW 22.1 0.0 0.1
17:12 14.6 14.3 98 1018.2 15.2 WSW 22.1 0.0 0.1
17:13 14.6 14.3 98 1018.2 13.6 SW 22.1 0.0 0.1
17:14 14.6 14.3 98 1018.4 12.1 SW 22.1 0.0 0.1
17:15 14.6 14.3 98 1018.2 20.6 SW 22.1 0.0 0.1
17:16 14.6 14.3 98 1018.2 16.8 SW 22.1 0.0 0.1
17:17 14.6 14.3 98 1018.0 19.0 SW 22.1 0.0 0.1
17:18 14.6 14.3 98 1018.2 13.0 S 22.1 0.0 0.1
17:19 14.6 14.3 98 1018.3 13.0 S 22.1 0.0 0.1
17:20 14.6 14.3 98 1018.3 15.9 SW 22.1 0.0 0.1
17:21 14.6 14.3 98 1018.1 16.8 S 22.1 0.0 0.1
17:22 14.6 14.3 98 1018.4 16.8 S 20.6 0.0 0.1
17:23 14.6 14.3 98 1018.1 18.3 SW 20.6 0.0 0.1
17:24 14.6 14.3 98 1018.4 15.9 SW 20.6 0.0 0.1
17:25 14.6 14.3 98 1018.3 15.9 WNW 20.6 0.0 0.1
17:26 14.6 14.3 98 1018.1 11.4 SW 19.0 0.0 0.1
17:27 14.6 14.3 98 1018.3 11.4 SW 18.3 0.0 0.1
17:28 14.6 14.3 98 1018.2 11.4 SW 18.3 0.0 0.1
17:29 14.6 14.3 98 1018.4 10.7 SW 18.3 0.0 0.1
17:30 14.6 14.3 98 1018.3 13.0 S 18.3 0.0 0.1
17:31 14.6 14.3 98 1018.3 13.6 SW 18.3 0.0 0.1
17:32 14.6 14.3 98 1018.1 13.6 SW 18.3 0.0 0.1
17:33 14.6 14.3 98 1018.2 14.5 SW 18.3 0.0 0.1
17:34 14.6 14.3 98 1018.2 13.6 S 15.9 0.0 0.1
17:35 14.6 14.3 98 1018.4 13.0 SW 15.9 0.0 0.1
17:36 14.6 14.3 98 1018.4 15.9 SW 15.9 0.0 0.1
17:37 14.6 14.3 98 1018.2 15.9 SW 15.9 0.0 0.1
17:38 14.6 14.3 98 1018.3 15.9 WSW 15.9 0.0 0.1
17:39 14.6 14.3 98 1018.5 16.8 SW 16.8 0.0 0.1
17:40 14.6 14.3 98 1018.4 16.8 SW 16.8 0.0 0.1
17:41 14.6 14.3 98 1018.3 20.6 S 20.6 0.0 0.1
17:42 14.6 14.3 98 1018.4 14.5 S 20.6 0.0 0.1
17:43 14.6 14.3 98 1018.3 14.5 S 20.6 0.0 0.1
17:44 14.6 14.3 98 1018.5 14.5 S 20.6 0.0 0.1
17:45 14.6 14.3 98 1018.3 18.3 W 20.6 0.0 0.1
17:46 14.6 14.3 98 1018.2 18.3 W 20.6 0.0 0.1
17:47 14.6 14.3 98 1018.4 18.3 W 20.6 0.0 0.1
17:48 14.6 14.3 98 1018.4 18.3 W 20.6 0.0 0.1
17:49 14.6 14.3 98 1018.4 15.9 SW 20.6 0.0 0.1
17:50 14.6 14.3 98 1018.5 15.9 SW 20.6 0.0 0.1
17:51 14.6 14.3 98 1018.5 20.6 S 20.6 0.0 0.1
17:52 14.6 14.3 98 1018.4 20.6 S 20.6 0.0 0.1
17:53 14.6 14.3 98 1018.4 19.0 SW 20.6 0.0 0.1
17:54 14.6 14.3 98 1018.5 22.1 SW 22.1 0.0 0.1
17:55 14.6 14.3 98 1018.3 19.0 SW 22.1 0.0 0.1
17:56 14.6 14.3 98 1018.3 13.6 SW 22.1 0.0 0.1
17:57 14.6 14.3 98 1018.2 13.6 SW 22.1 0.0 0.1
17:58 14.6 14.3 98 1018.4 13.6 SW 22.1 0.0 0.1
17:59 14.6 14.3 98 1018.4 13.6 SW 22.1 0.0 0.1
18:00 14.6 14.3 98 1018.4 13.6 SW 22.1 0.0 0.1
18:01 14.6 14.3 98 1018.3 13.6 SW 22.1 0.0 0.1
18:02 14.6 14.3 98 1018.4 15.9 S 22.1 0.0 0.1
18:03 14.6 14.3 98 1018.3 13.6 S 22.1 0.0 0.1
18:04 14.6 14.3 98 1018.6 13.0 SW 19.0 0.0 0.1
18:05 14.6 14.3 98 1018.4 18.3 S 19.0 0.0 0.1
18:06 14.6 14.3 98 1018.3 18.3 S 18.3 0.0 0.1
18:07 14.6 14.3 98 1018.3 20.6 SW 20.6 0.0 0.1
18:08 14.6 14.3 98 1018.1 20.6 SW 20.6 0.0 0.1
18:09 14.6 14.3 98 1018.6 20.6 SW 20.6 0.0 0.1
18:10 14.6 14.3 98 1018.3 20.6 SW 20.6 0.0 0.1
18:11 14.6 14.3 98 1018.2 17.4 SSE 20.6 0.0 0.1
18:12 14.6 14.3 98 1018.2 17.4 SSE 20.6 0.0 0.1
18:13 14.6 14.3 98 1018.3 14.5 S 20.6 0.0 0.1
18:14 14.6 14.3 98 1018.1 16.8 SW 20.6 0.0 0.1
18:15 14.6 14.3 98 1018.1 13.0 SW 20.6 0.0 0.1
18:16 14.6 14.3 98 1018.2 15.2 SW 20.6 0.0 0.1
18:17 14.6 14.3 98 1018.3 19.7 S 20.6 0.0 0.1
18:18 14.6 14.3 98 1018.3 19.7 S 20.6 0.0 0.1
18:19 14.6 14.3 98 1018.3 15.2 W 20.6 0.0 0.1
18:20 14.6 14.3 98 1018.3 15.2 W 20.6 0.0 0.1
18:21 14.6 14.3 98 1018.1 14.5 SW 19.7 0.0 0.1
18:22 14.6 14.3 98 1018.1 14.5 SW 19.7 0.0 0.1
18:23 14.6 14.3 98 1018.2 15.9 SW 19.7 0.0 0.1
18:24 14.6 14.3 98 1018.3 14.5 SSE 19.7 0.0 0.1
18:25 14.6 14.3 98 1018.4 14.5 SSE 19.7 0.0 0.1
18:26 14.6 14.3 98 1018.5 18.3 SW 19.7 0.0 0.1
18:27 14.5 14.2 98 1018.4 19.7 SSW 19.7 0.0 0.1
18:28 14.5 14.2 98 1018.1 19.7 SSW 19.7 0.0 0.1
18:29 14.5 14.2 98 1018.5 17.4 SW 19.7 0.0 0.1
18:30 14.5 14.2 98 1018.2 15.2 SW 19.7 0.0 0.1
18:31 14.5 14.2 98 1018.5 15.2 SW 19.7 0.0 0.1
18:32 14.5 14.2 98 1018.6 15.2 SW 19.7 0.0 0.1
18:33 14.5 14.2 98 1018.4 15.2 SW 19.7 0.0 0.1
18:34 14.5 14.2 98 1018.4 15.2 SW 19.7 0.0 0.1
18:35 14.5 14.2 98 1018.4 20.6 SW 20.6 0.0 0.1
18:36 14.5 14.2 98 1018.2 20.6 SW 20.6 0.0 0.1
18:37 14.5 14.2 98 1018.3 18.3 SW 20.6 0.0 0.1
18:38 14.5 14.2 98 1018.3 18.3 SW 20.6 0.0 0.1
18:39 14.5 14.2 98 1018.6 16.8 S 20.6 0.0 0.1
18:40 14.5 14.2 98 1018.5 15.2 S 20.6 0.0 0.1
18:41 14.5 14.2 98 1018.4 19.7 SW 20.6 0.0 0.1
18:42 14.6 14.3 98 1018.2 18.3 SSE 20.6 0.0 0.1
18:43 14.5 14.2 98 1018.3 18.3 SW 20.6 0.0 0.1
18:44 14.6 14.3 98 1018.5 13.6 SW 20.6 0.0 0.1
18:45 14.5 14.2 98 1018.3 15.9 W 20.6 0.0 0.1
18:46 14.6 14.3 98 1018.5 15.2 SW 19.7 0.0 0.1
18:47 14.6 14.5 99 1018.2 18.3 SW 19.7 0.0 0.1
18:48 14.6 14.5 99 1018.4 18.3 SW 19.7 0.0 0.1
18:49 14.6 14.5 99 1018.4 19.0 SSE 19.7 0.0 0.1
18:50 14.6 14.5 99 1018.3 18.3 S 19.7 0.0 0.1
18:51 14.6 14.5 99 1018.5 18.3 SW 19.7 0.0 0.1
18:52 14.6 14.5 99 1018.2 19.7 S 19.7 0.0 0.1
18:53 14.5 14.4 99 1018.5 17.4 SW 19.7 0.0 0.1
18:54 14.5 14.4 99 1018.4 17.4 S 19.7 0.0 0.1
18:55 14.5 14.4 99 1018.3 17.4 S 19.7 0.0 0.1
18:56 14.5 14.4 99 1018.3 15.9 S 19.7 0.0 0.1
18:57 14.6 14.5 99 1018.4 14.5 SW 19.7 0.0 0.1
18:58 14.6 14.5 99 1018.4 14.5 SW 19.7 0.0 0.1
18:59 14.6 14.5 99 1018.3 16.8 SW 19.7 0.0 0.1
19:00 14.6 14.5 99 1018.5 16.8 S 19.7 0.0 0.1
19:01 14.6 14.5 99 1018.4 16.8 S 19.7 0.0 0.1
19:02 14.6 14.5 99 1018.4 16.8 S 17.4 0.0 0.1
19:03 14.6 14.5 99 1018.3 16.8 S 17.4 0.0 0.1
19:04 14.6 14.5 99 1018.6 16.8 S 17.4 0.0 0.1
19:05 14.6 14.5 99 1018.6 16.8 S 17.4 0.0 0.1
19:06 14.6 14.5 99 1018.5 16.8 S 16.8 0.0 0.1
19:07 14.6 14.5 99 1018.4 21.3 SW 21.3 0.0 0.1
19:08 14.6 14.5 99 1018.6 13.0 WSW 21.3 0.0 0.1
19:09 14.6 14.5 99 1018.5 13.6 NNE 21.3 0.0 0.1
19:10 14.6 14.5 99 1018.6 16.8 S 21.3 0.0 0.1
19:11 14.6 14.5 99 1018.6 13.6 SSW 21.3 0.0 0.1
19:12 14.6 14.5 99 1018.6 16.8 SW 21.3 0.0 0.1
19:13 14.6 14.5 99 1018.6 16.8 NW 21.3 0.0 0.1
19:14 14.6 14.5 99 1018.3 15.9 SW 21.3 0.0 0.1
19:15 14.6 14.5 99 1018.4 13.6 SW 21.3 0.0 0.1
19:16 14.6 14.5 99 1018.5 15.9 SW 21.3 0.0 0.1
19:17 14.6 14.5 99 1018.5 14.5 S 21.3 0.0 0.1
19:18 14.6 14.5 99 1018.5 15.2 S 17.4 0.0 0.1
19:19 14.6 14.5 99 1018.3 15.9 WSW 17.4 0.0 0.1
19:20 14.6 14.5 99 1018.6 15.9 S 17.4 0.0 0.1
19:21 14.6 14.5 99 1018.3 15.9 SW 17.4 0.0 0.1
19:22 14.6 14.5 99 1018.3 15.9 SW 17.4 0.0 0.1
19:23 14.6 14.5 99 1018.5 13.6 SW 17.4 0.0 0.1
19:24 14.6 14.5 99 1018.5 13.0 SW 17.4 0.0 0.1
19:25 14.6 14.5 99 1018.6 13.6 SW 17.4 0.0 0.1
19:26 14.6 14.5 99 1018.6 14.5 WSW 17.4 0.0 0.1
19:27 14.6 14.5 99 1018.3 14.5 SW 17.4 0.0 0.1
19:28 14.6 14.5 99 1018.4 13.6 SSW 17.4 0.0 0.1
19:29 14.6 14.5 99 1018.3 16.8 SW 17.4 0.0 0.1
19:30 14.6 14.5 99 1018.5 15.2 NW 17.4 0.0 0.1
19:31 14.6 14.5 99 1018.4 18.3 SW 18.3 0.0 0.1
19:32 14.6 14.5 99 1018.4 18.3 NE 18.3 0.0 0.1
19:33 14.6 14.5 99 1018.4 14.5 S 18.3 0.0 0.1
19:34 14.6 14.5 99 1018.4 15.9 S 18.3 0.0 0.1
19:35 14.6 14.5 99 1018.2 16.8 S 18.3 0.0 0.1
19:36 14.6 14.5 99 1018.4 16.8 S 18.3 0.0 0.1
19:37 14.6 14.5 99 1018.4 15.9 WSW 18.3 0.0 0.1
19:38 14.6 14.5 99 1018.4 16.8 S 18.3 0.0 0.1
19:39 14.6 14.5 99 1018.5 19.0 S 19.0 0.0 0.1
19:40 14.6 14.5 99 1018.5 20.6 S 20.6 0.0 0.1
19:41 14.6 14.5 99 1018.6 20.6 S 20.6 0.0 0.1
19:42 14.6 14.5 99 1018.5 13.6 S 20.6 0.0 0.1
19:43 14.6 14.5 99 1018.4 15.2 SW 20.6 0.0 0.1
19:44 14.6 14.5 99 1018.5 16.8 S 20.6 0.0 0.1
19:45 14.6 14.5 99 1018.3 21.3 S 21.3 0.0 0.1
19:46 14.6 14.5 99 1018.3 17.4 S 21.3 0.0 0.1
19:47 14.6 14.5 99 1018.3 15.9 S 21.3 0.0 0.1
19:48 14.6 14.5 99 1018.3 16.8 WSW 21.3 0.0 0.1
19:49 14.6 14.5 99 1018.5 16.8 S 21.3 0.0 0.1
19:50 14.6 14.5 99 1018.5 15.2 S 21.3 0.0 0.1
19:51 14.6 14.5 99 1018.6 20.6 SW 21.3 0.0 0.1
19:52 14.6 14.5 99 1018.4 18.3 SW 21.3 0.0 0.1
19:53 14.6 14.5 99 1018.4 13.6 SW 21.3 0.0 0.1
19:54 14.6 14.5 99 1018.4 13.6 SW 21.3 0.0 0.1
19:55 14.6 14.5 99 1018.6 18.3 SW 21.3 0.0 0.1
19:56 14.6 14.5 99 1018.4 19.0 SW 20.6 0.0 0.1
19:57 14.6 14.5 99 1018.4 20.6 S 20.6 0.0 0.1
19:58 14.6 14.5 99 1018.5 20.6 S 20.6 0.0 0.1
19:59 14.6 14.5 99 1018.4 19.7 SW 22.8 0.0 0.1
20:00 14.6 14.5 99 1018.5 14.5 WSW 22.8 0.0 0.1
20:01 14.6 14.5 99 1018.4 15.2 S 22.8 0.0 0.1
20:02 14.6 14.5 99 1018.4 17.4 SSW 22.8 0.0 0.1
20:03 14.6 14.5 99 1018.6 20.6 S 22.8 0.0 0.1
20:04 14.6 14.5 99 1018.5 22.1 SSE 22.8 0.0 0.1
20:05 14.6 14.5 99 1018.3 18.3 S 24.4 0.0 0.1
20:06 14.6 14.5 99 1018.3 19.0 S 24.4 0.0 0.1
20:07 14.6 14.5 99 1018.2 22.1 SW 24.4 0.0 0.1
20:08 14.6 14.5 99 1018.6 18.3 WSW 24.4 0.0 0.1
20:09 14.6 14.5 99 1018.5 15.2 S 24.4 0.0 0.1
20:10 14.6 14.5 99 1018.5 19.0 SW 24.4 0.0 0.1
20:11 14.6 14.5 99 1018.7 15.2 WSW 24.4 0.0 0.1
20:12 14.6 14.5 99 1018.5 17.4 S 24.4 0.0 0.1
20:13 14.6 14.5 99 1018.5 17.4 S 24.4 0.0 0.1
20:14 14.6 14.5 99 1018.5 15.2 SE 24.4 0.0 0.1
20:15 14.6 14.5 99 1018.5 18.3 SW 24.4 0.0 0.1
20:16 14.6 14.5 99 1018.4 21.3 SW 22.1 0.0 0.1
20:17 14.6 14.5 99 1018.5 17.4 SW 22.1 0.0 0.1
20:18 14.6 14.5 99 1018.6 17.4 SW 21.3 0.0 0.1
20:19 14.6 14.5 99 1018.5 19.7 S 21.3 0.0 0.1
20:20 14.7 14.6 99 1018.5 16.8 S 21.3 0.0 0.1
20:21 14.6 14.5 99 1018.6 13.0 SE 21.3 0.0 0.1
20:22 14.6 14.5 99 1018.6 17.4 SW 21.3 0.0 0.1
20:23 14.7 14.6 99 1018.4 17.4 NW 21.3 0.0 0.1
20:24 14.7 14.6 99 1018.4 17.4 S 21.3 0.0 0.1
20:25 14.6 14.5 99 1018.6 17.4 SSW 21.3 0.0 0.1
20:26 14.7 14.6 99 1018.4 17.4 S 21.3 0.0 0.1
20:27 14.7 14.6 99 1018.5 14.5 SSW 19.7 0.0 0.1
20:28 14.7 14.6 99 1018.4 15.9 SSE 19.7 0.0 0.1
20:29 14.7 14.6 99 1018.5 19.7 S 19.7 0.0 0.1
20:30 14.7 14.6 99 1018.3 19.7 SW 19.7 0.0 0.1
20:31 14.6 14.5 99 1018.5 18.3 S 19.7 0.0 0.1
20:32 14.7 14.6 99 1018.4 17.4 S 19.7 0.0 0.1
20:33 14.7 14.6 99 1018.3 16.8 SSE 19.7 0.0 0.1
20:34 14.7 14.6 99 1018.4 17.4 SW 19.7 0.0 0.1
20:35 14.7 14.6 99 1018.4 17.4 SSW 19.7 0.0 0.1
20:36 14.6 14.5 99 1018.3 16.8 SW 19.7 0.0 0.1
20:37 14.7 14.6 99 1018.4 20.6 WSW 20.6 0.0 0.1
20:38 14.6 14.5 99 1018.3 18.3 SW 20.6 0.0 0.1
20:39 14.6 14.5 99 1018.5 19.7 S 20.6 0.0 0.1
20:40 14.6 14.5 99 1018.2 19.7 SW 20.6 0.0 0.1
20:41 14.6 14.5 99 1018.3 13.6 SSW 20.6 0.0 0.1
20:42 14.6 14.5 99 1018.2 15.9 SW 20.6 0.0 0.1
20:43 14.6 14.5 99 1018.1 17.4 SW 20.6 0.0 0.1
20:44 14.6 14.5 99 1018.3 16.8 S 20.6 0.0 0.1
20:45 14.6 14.5 99 1018.3 19.0 SW 20.6 0.0 0.1
20:46 14.6 14.5 99 1018.2 16.8 SW 20.6 0.0 0.1
20:47 14.6 14.5 99 1018.2 20.6 SW 20.6 0.0 0.1
20:48 14.6 14.5 99 1018.2 15.2 S 20.6 0.0 0.1
20:49 14.6 14.5 99 1018.3 18.3 S 20.6 0.0 0.1
20:50 14.6 14.5 99 1018.2 19.7 SW 20.6 0.0 0.1
20:51 14.6 14.5 99 1018.2 19.7 SW 20.6 0.0 0.1
20:52 14.6 14.5 99 1018.4 12.1 S 20.6 0.0 0.1
20:53 14.6 14.5 99 1018.4 21.3 SSE 21.3 0.0 0.1
20:54 14.6 14.6 100 1018.4 21.3 NW 21.3 0.0 0.1
20:55 14.6 14.6 100 1018.4 16.8 SE 21.3 0.0 0.1
20:56 14.6 14.6 100 1018.3 16.8 SE 21.3 0.0 0.1
20:57 14.6 14.6 100 1018.5 19.0 WSW 21.3 0.0 0.1
20:58 14.6 14.6 100 1018.5 19.0 WSW 21.3 0.0 0.1
20:59 14.6 14.6 100 1018.2 18.3 SW 21.3 0.0 0.1
21:00 14.6 14.6 100 1018.4 19.7 S 21.3 0.0 0.1
21:01 14.6 14.6 100 1018.3 19.7 S 21.3 0.0 0.1
21:02 14.6 14.6 100 1018.4 19.7 S 21.3 0.0 0.1
21:03 14.6 14.6 100 1018.1 19.7 S 21.3 0.0 0.1
21:04 14.6 14.6 100 1018.3 19.7 S 21.3 0.0 0.1
21:05 14.6 14.6 100 1018.2 19.7 S 19.7 0.0 0.1
21:06 14.6 14.6 100 1018.4 19.7 S 19.7 0.0 0.1
21:07 14.6 14.6 100 1018.4 19.7 SW 19.7 0.0 0.1
21:08 14.6 14.6 100 1018.3 17.4 SW 19.7 0.0 0.1
21:09 14.6 14.6 100 1018.3 22.8 S 22.8 0.0 0.1
21:10 14.6 14.6 100 1018.4 22.8 S 22.8 0.0 0.1
21:11 14.6 14.6 100 1018.2 21.3 WSW 22.8 0.0 0.1
21:12 14.6 14.6 100 1018.1 21.3 WSW 22.8 0.0 0.1
21:13 14.6 14.6 100 1018.3 16.8 S 22.8 0.0 0.1
21:14 14.6 14.6 100 1018.3 16.8 SW 22.8 0.0 0.1
21:15 14.6 14.6 100 1018.3 16.8 SW 22.8 0.0 0.1
21:16 14.6 14.6 100 1018.3 16.8 SSE 22.8 0.0 0.1
21:17 14.6 14.6 100 1018.3 22.1 S 22.8 0.0 0.1
21:18 14.6 14.6 100 1018.3 16.8 S 22.8 0.0 0.1
21:19 14.6 14.6 100 1018.2 16.8 S 22.8 0.0 0.1
21:20 14.6 14.6 100 1018.2 16.8 S 22.8 0.0 0.1
21:21 14.6 14.6 100 1018.2 18.3 S 22.1 0.0 0.1
21:22 14.6 14.6 100 1018.1 18.3 S 22.1 0.0 0.1
21:23 14.6 14.6 100 1018.3 16.8 S 22.1 0.0 0.1
21:24 14.6 14.6 100 1018.3 17.4 SW 22.1 0.0 0.1
21:25 14.6 14.6 100 1018.2 20.6 S 22.1 0.0 0.1
21:26 14.6 14.6 100 1018.3 19.0 S 22.1 0.0 0.1
21:27 14.6 14.6 100 1018.3 16.8 S 22.1 0.0 0.1
21:28 14.6 14.6 100 1018.1 14.5 S 20.6 0.0 0.1
21:29 14.6 14.6 100 1018.1 22.8 SW 22.8 0.0 0.1
21:30 14.6 14.6 100 1018.0 23.5 SW 23.5 0.0 0.1
21:31 14.6 14.6 100 1018.3 25.9 S 25.9 0.0 0.1
21:32 14.6 14.6 100 1018.3 28.9 S 28.9 0.0 0.1
21:33 14.6 14.6 100 1018.0 18.3 S 28.9 0.0 0.1
21:34 14.6 14.6 100 1018.2 15.9 SW 28.9 0.0 0.1
21:35 14.6 14.6 100 1017.9 24.4 SW 28.9 0.0 0.1
21:36 14.6 14.6 100 1018.1 19.7 S 28.9 0.0 0.1
21:37 14.6 14.6 100 1018.1 18.3 S 28.9 0.0 0.1
21:38 14.6 14.6 100 1018.2 21.3 S 28.9 0.0 0.1
21:39 14.5 14.5 100 1018.3 23.5 NW 28.9 0.0 0.1
21:40 14.5 14.5 100 1018.1 19.7 S 28.9 0.0 0.1
21:41 14.5 14.5 100 1018.3 18.3 SW 28.9 0.0 0.1
21:42 14.5 14.5 100 1018.1 15.2 SW 28.9 0.0 0.1
21:43 14.5 14.5 100 1018.2 19.7 S 25.9 0.0 0.1
21:44 14.5 14.5 100 1018.1 16.8 S 24.4 0.0 0.1
21:45 14.6 14.6 100 1018.2 19.0 SW 24.4 0.0 0.1
21:46 14.6 14.6 100 1018.3 19.0 SW 23.5 0.0 0.1
21:47 14.6 14.6 100 1018.1 19.0 WSW 23.5 0.0 0.1
21:48 14.6 14.6 100 1018.2 16.8 S 23.5 0.0 0.1
21:49 14.6 14.6 100 1018.1 18.3 S 19.7 0.0 0.1
21:50 14.6 14.6 100 1018.3 19.0 SW 19.7 0.0 0.1
21:51 14.6 14.6 100 1018.2 15.2 SW 19.7 0.0 0.1
21:52 14.6 14.6 100 1018.2 14.5 S 19.7 0.0 0.1
21:53 14.6 14.6 100 1018.1 15.9 S 19.7 0.0 0.1
21:54 14.6 14.6 100 1018.2 19.7 SW 19.7 0.0 0.1
21:55 14.6 14.6 100 1018.2 22.1 S 22.1 0.0 0.1
21:56 14.6 14.6 100 1018.2 15.9 SSW 22.1 0.0 0.1
21:57 14.6 14.6 100 1018.2 17.4 SW 22.1 0.0 0.1
21:58 14.6 14.6 100 1018.2 20.6 SSW 22.1 0.0 0.1
21:59 14.5 14.5 100 1018.2 16.8 S 22.1 0.0 0.1
22:00 14.5 14.5 100 1018.2 15.9 S 22.1 0.0 0.1
22:01 14.5 14.5 100 1018.1 15.9 SSW 22.1 0.0 0.1
22:02 14.5 14.5 100 1018.1 15.2 SW 22.1 0.0 0.1
22:03 14.5 14.5 100 1018.2 19.0 S 22.1 0.0 0.1
22:04 14.5 14.5 100 1017.9 21.3 S 22.1 0.0 0.1
22:05 14.5 14.5 100 1017.9 20.6 S 21.3 0.0 0.1
22:06 14.5 14.5 100 1017.8 18.3 SW 21.3 0.0 0.1
22:07 14.5 14.5 100 1018.0 16.8 NW 21.3 0.0 0.1
22:08 14.5 14.5 100 1018.0 17.4 S 21.3 0.0 0.1
22:09 14.5 14.5 100 1018.0 16.8 SW 21.3 0.0 0.1
22:10 14.5 14.5 100 1018.0 16.8 SW 21.3 0.0 0.1
22:11 14.5 14.5 100 1018.0 23.5 S 23.5 0.0 0.1
22:12 14.5 14.5 100 1017.8 22.8 SW 23.5 0.0 0.1
22:13 14.5 14.5 100 1018.1 18.3 SW 23.5 0.0 0.1
22:14 14.5 14.5 100 1017.9 17.4 SW 23.5 0.0 0.1
22:15 14.5 14.5 100 1018.1 19.0 SW 23.5 0.0 0.1
22:16 14.5 14.5 100 1017.9 17.4 SW 23.5 0.0 0.1
22:17 14.5 14.5 100 1018.0 15.2 SW 23.5 0.0 0.1
22:18 14.5 14.5 100 1017.8 14.5 S 23.5 0.0 0.1
22:19 14.5 14.5 100 1017.8 19.7 WNW 23.5 0.0 0.1
22:20 14.5 14.5 100 1018.0 18.3 S 23.5 0.0 0.1
22:21 14.5 14.5 100 1018.1 14.5 S 23.5 0.0 0.1
22:22 14.5 14.5 100 1018.1 17.4 S 19.7 0.0 0.1
22:23 14.5 14.5 100 1017.8 19.7 SW 19.7 0.0 0.1
22:24 14.5 14.5 100 1018.0 19.0 S 19.7 0.0 0.1
22:25 14.5 14.5 100 1018.3 20.6 S 22.1 0.0 0.1
22:26 14.5 14.5 100 1018.1 22.1 SW 22.1 0.0 0.1
22:27 14.5 14.5 100 1018.2 21.3 S 22.1 0.0 0.1
22:28 14.5 14.5 100 1018.2 23.5 S 23.5 0.0 0.1
22:29 14.5 14.5 100 1018.0 22.1 SW 23.5 0.0 0.1
22:30 14.5 14.5 100 1018.0 22.1 SW 23.5 0.0 0.1
22:31 14.5 14.5 100 1018.1 17.4 S 23.5 0.0 0.1
22:32 14.5 14.5 100 1018.2 19.7 S 23.5 0.0 0.1
22:33 14.5 14.5 100 1018.1 15.2 SW 23.5 0.0 0.1
22:34 14.5 14.5 100 1018.3 19.0 SW 23.5 0.0 0.1
22:35 14.5 14.5 100 1018.1 16.8 SW 23.5 0.0 0.1
22:36 14.5 14.5 100 1018.6 18.3 S 23.5 0.0 0.1
22:37 14.5 14.5 100 1018.4 22.1 S 23.5 0.0 0.1
22:38 14.5 14.5 100 1018.1 19.0 S 22.1 0.0 0.1
22:39 14.5 14.5 100 1018.3 17.4 S 22.1 0.0 0.1
22:40 14.5 14.5 100 1018.4 16.8 SW 22.1 0.0 0.1
22:41 14.5 14.5 100 1018.3 17.4 WSW 22.1 0.0 0.1
22:42 14.5 14.5 100 1018.3 17.4 WNW 22.1 0.0 0.1
22:43 14.5 14.5 100 1018.3 24.4 S 24.4 0.0 0.1
22:44 14.5 14.5 100 1018.5 25.9 SW 25.9 0.0 0.1
22:45 14.5 14.5 100 1018.2 21.3 NW 25.9 0.0 0.1
22:46 14.5 14.5 100 1018.4 16.8 S 25.9 0.0 0.1
22:47 14.5 14.5 100 1018.5 19.7 SW 25.9 0.0 0.1
22:48 14.5 14.5 100 1018.4 17.4 SW 25.9 0.0 0.1
22:49 14.5 14.5 100 1018.3 19.7 SW 25.9 0.0 0.1
22:50 14.5 14.5 100 1018.4 19.0 SW 25.9 0.0 0.1
22:51 14.5 14.5 100 1018.5 22.1 WSW 25.9 0.0 0.1
22:52 14.5 14.5 100 1018.5 20.6 S 25.9 0.0 0.1
22:53 14.5 14.5 100 1018.6 14.5 S 25.9 0.0 0.1
22:54 14.5 14.5 100 1018.1 14.5 S 22.1 0.0 0.1
22:55 14.5 14.5 100 1018.5 15.2 SW 22.1 0.0 0.1
22:56 14.5 14.5 100 1018.5 15.2 SW 22.1 0.0 0.1
22:57 14.5 14.5 100 1018.5 20.6 SW 22.1 0.0 0.1
22:58 14.5 14.5 100 1018.4 18.3 SW 22.1 0.0 0.1
22:59 14.5 14.5 100 1018.3 18.3 SW 22.1 0.0 0.1
23:00 14.5 14.5 100 1018.4 18.3 NW 22.1 0.0 0.1
23:01 14.5 14.5 100 1018.4 18.3 NW 22.1 0.0 0.1
23:02 14.5 14.5 100 1018.3 18.3 NW 20.6 0.0 0.1
23:03 14.5 14.5 100 1018.4 18.3 NW 20.6 0.0 0.1
23:04 14.5 14.5 100 1018.8 18.3 NW 20.6 0.0 0.1
23:05 14.5 14.5 100 1018.5 18.3 NW 20.6 0.0 0.1
23:06 14.5 14.5 100 1018.3 18.3 NW 20.6 0.0 0.1
23:07 14.5 14.5 100 1018.4 17.4 SW 20.6 0.0 0.1
23:08 14.5 14.5 100 1018.3 16.8 S 18.3 0.0 0.1
23:09 14.5 14.5 100 1018.3 20.6 S 20.6 0.0 0.1
23:10 14.5 14.5 100 1018.4 21.3 N 21.3 0.0 0.1
23:11 14.5 14.5 100 1018.4 21.3 NNE 21.3 0.0 0.1
23:12 14.5 14.5 100 1018.4 15.2 SW 21.3 0.0 0.1
23:13 14.5 14.5 100 1018.2 20.6 S 21.3 0.0 0.1
23:14 14.5 14.5 100 1018.5 21.3 SW 21.3 0.0 0.1
23:15 14.5 14.5 100 1018.5 19.0 S 21.3 0.0 0.1
23:16 14.5 14.5 100 1018.2 16.8 S 21.3 0.0 0.1
23:17 14.5 14.5 100 1018.1 15.9 S 21.3 0.0 0.1
23:18 14.5 14.5 100 1018.1 15.9 S 21.3 0.0 0.1
23:19 14.5 14.5 100 1018.2 21.3 S 21.3 0.0 0.1
23:20 14.5 14.5 100 1018.3 17.4 S 21.3 0.0 0.1
23:21 14.5 14.5 100 1018.3 17.4 SW 21.3 0.0 0.1
23:22 14.5 14.5 100 1018.2 13.0 SW 21.3 0.0 0.1
23:23 14.5 14.5 100 1018.3 15.2 S 21.3 0.0 0.1
23:24 14.5 14.5 100 1018.3 15.2 S 21.3 0.0 0.1
23:25 14.5 14.5 100 1018.3 14.5 S 21.3 0.0 0.1
23:26 14.5 14.5 100 1018.4 19.7 SW 21.3 0.0 0.1
23:27 14.5 14.5 100 1018.3 19.7 SW 21.3 0.0 0.1
23:28 14.5 14.5 100 1018.3 15.9 SW 21.3 0.0 0.1
23:29 14.5 14.5 100 1018.2 19.0 S 19.7 0.0 0.1
23:30 14.5 14.5 100 1018.1 19.0 SW 19.7 0.0 0.1
23:31 14.5 14.5 100 1018.1 19.7 SW 19.7 0.0 0.1
23:32 14.5 14.5 100 1018.1 19.0 SW 19.7 0.0 0.1
23:33 14.5 14.5 100 1018.1 19.0 SW 19.7 0.0 0.1
23:34 14.5 14.5 100 1018.1 19.0 SW 19.7 0.0 0.1
23:35 14.5 14.5 100 1018.2 12.1 SE 19.7 0.0 0.1
23:36 14.5 14.5 100 1018.3 16.8 SW 19.7 0.0 0.1
23:37 14.5 14.5 100 1018.1 19.7 SW 19.7 0.0 0.1
23:38 14.5 14.5 100 1018.0 15.9 S 19.7 0.0 0.1
23:39 14.5 14.5 100 1018.2 15.9 WSW 19.7 0.0 0.1
23:40 14.5 14.5 100 1018.0 20.6 S 20.6 0.0 0.1
23:41 14.5 14.5 100 1017.9 17.4 SW 20.6 0.0 0.1
23:42 14.5 14.5 100 1018.1 19.0 S 20.6 0.0 0.1
23:43 14.5 14.5 100 1018.2 19.0 S 20.6 0.0 0.1
23:44 14.5 14.5 100 1018.0 16.8 SW 20.6 0.0 0.1
23:45 14.5 14.5 100 1017.9 20.6 S 20.6 0.0 0.1
23:46 14.5 14.5 100 1018.0 22.8 SSW 22.8 0.0 0.1
23:47 14.5 14.5 100 1018.1 22.8 S 22.8 0.0 0.1
23:48 14.5 14.5 100 1018.0 24.4 SW 24.4 0.0 0.1
23:49 14.5 14.5 100 1018.0 16.8 S 24.4 0.0 0.1
23:50 14.5 14.5 100 1018.0 16.8 S 24.4 0.0 0.1
23:51 14.5 14.5 100 1018.1 15.2 S 24.4 0.0 0.1
23:52 14.4 14.4 100 1018.0 17.4 SSW 24.4 0.0 0.1
23:53 14.4 14.4 100 1018.0 18.3 S 24.4 0.0 0.1
23:54 14.4 14.4 100 1018.1 18.3 S 24.4 0.0 0.1
23:55 14.4 14.4 100 1018.2 21.3 S 24.4 0.0 0.1
23:56 14.4 14.4 100 1018.2 21.3 SW 24.4 0.0 0.1
23:57 14.4 14.4 100 1018.2 18.3 SW 24.4 0.0 0.1
23:58 14.5 14.5 100 1018.3 18.3 SW 26.6 0.0 0.1
23:59 14.5 14.5 100 1018.1 19.0 SW 26.6 0.0 0.1

 

 

UK - WEATHER STATION TOPSITES - UK World Weather Websites

Copyright © Carnkie Weather 2009 - 2022.